[{"header": {"dx": 0.06612293990616946, "dy": 0.0552356325346848, "nx": 98, "ny": 59, "la1": 35.046912555036876, "la2": 31.78801023549047, "lo1": -121.43107172385933, "lo2": -114.95102361305473, "refTime": "2026040620", "parameterCategory": 1, "parameterNumber": 2}, "data": [6.64, 6.92, 6.92, 7.51, 7.51, 7.51, 7.51, 7.73, 8.0, 8.0, 7.9, 8.0, 9.66, 9.06, 8.77, 8.45, 8.44, 7.98, 8.38, 7.89, 6.8, 5.06, 1.98, 0.96, 0.0, 0.0, -1.84, -2.8, -2.8, -2.6, -2.16, -1.99, -1.05, 0.0, 0.0, 1.99, 2.99, 2.99, 3.63, 4.43, 5.15, 5.84, 7.33, 7.9, 9.46, 10.04, 10.66, 10.29, 10.04, 9.43, 9.03, 8.72, 8.14, 8.0, 7.6, 7.15, 7.1, 6.64, 6.45, 6.45, 6.88, 6.45, 6.45, 6.45, 6.45, 7.08, 7.1, 7.54, 7.6, 7.6, 7.6, 7.15, 7.15, 7.15, 7.15, 6.71, 6.71, 6.26, 6.64, 5.73, 5.4, 4.98, 4.8, 3.72, 2.21, 2.0, 3.13, 4.47, 5.36, 5.73, 5.73, 5.36, 5.36, 5.73, 5.51, 5.94, 5.6, 3.79, 6.34, 6.92, 6.92, 6.92, 7.51, 7.51, 7.51, 7.51, 7.8, 7.44, 7.35, 9.03, 8.8, 8.55, 9.54, 8.6, 7.85, 8.82, 8.38, 6.57, 7.47, 5.06, 1.73, 0.0, 0.0, 0.0, -0.96, -1.98, -1.98, -1.98, -1.98, -1.03, -1.03, 0.0, 0.0, 1.98, 1.84, 2.64, 3.0, 3.72, 4.87, 6.64, 7.27, 7.9, 8.93, 9.62, 9.62, 9.0, 8.38, 8.42, 8.43, 8.72, 8.56, 7.89, 8.05, 8.05, 7.55, 7.54, 7.37, 6.94, 7.1, 6.64, 6.64, 6.64, 6.64, 7.1, 7.15, 7.6, 7.6, 8.05, 7.6, 7.6, 7.15, 7.15, 7.15, 7.1, 7.1, 6.26, 6.64, 5.73, 5.4, 4.98, 4.8, 3.72, 2.21, 2.0, 3.13, 4.47, 5.36, 5.73, 5.73, 5.36, 5.36, 5.73, 5.51, 5.94, 5.6, 3.79, 6.34, 6.64, 6.92, 6.92, 6.92, 7.51, 7.51, 7.51, 7.17, 7.44, 7.09, 7.07, 8.82, 8.4, 8.3, 8.56, 8.56, 8.56, 7.95, 8.48, 6.57, 6.08, 3.0, 0.0, 0.0, 0.0, -1.03, -1.03, -1.72, -1.84, -0.95, -0.95, 0.0, 0.0, 0.95, 1.58, 1.96, 1.73, 2.67, 3.6, 5.21, 6.42, 7.78, 8.42, 8.42, 8.93, 8.38, 7.76, 7.51, 7.51, 7.81, 7.82, 8.48, 8.29, 7.56, 8.05, 8.0, 8.0, 7.55, 7.54, 7.54, 7.1, 6.65, 6.65, 7.15, 7.15, 7.6, 7.6, 7.6, 8.05, 8.05, 7.6, 7.6, 7.54, 7.54, 6.94, 7.37, 7.08, 6.02, 5.94, 4.98, 4.98, 4.29, 3.16, 1.74, 1.2, 2.6, 4.4, 5.94, 6.45, 6.45, 5.73, 5.81, 5.81, 6.17, 5.94, 5.94, 3.48, 6.34, 6.34, 6.64, 6.92, 6.92, 7.17, 7.51, 7.51, 7.51, 7.44, 6.87, 6.87, 8.82, 8.55, 8.4, 8.4, 8.8, 9.13, 8.72, 8.48, 7.63, 8.06, 6.08, 1.98, 0.0, 0.0, -0.95, -0.89, -0.89, 0.0, 0.0, 0.0, 0.0, 0.0, 1.58, 1.58, 1.4, 2.83, 2.57, 4.07, 6.0, 7.64, 7.36, 7.48, 7.59, 8.03, 7.81, 7.82, 7.2, 7.2, 6.64, 7.76, 7.63, 7.85, 8.05, 7.6, 7.55, 8.0, 8.0, 7.55, 7.55, 7.54, 7.1, 7.1, 7.15, 7.6, 7.6, 7.15, 7.6, 7.6, 8.44, 8.0, 7.85, 7.21, 7.21, 7.12, 7.12, 6.57, 6.0, 5.37, 4.19, 4.98, 3.79, 2.95, 1.8, 2.23, 3.16, 4.54, 6.21, 6.6, 6.57, 5.94, 6.17, 6.26, 6.26, 6.2, 5.94, 4.09, 6.34, 6.34, 6.34, 6.64, 6.92, 6.92, 7.51, 7.51, 7.51, 7.17, 6.59, 6.87, 8.42, 8.8, 8.8, 8.43, 8.24, 8.43, 8.8, 8.4, 8.4, 8.0, 7.28, 4.83, 0.95, 0.0, 0.0, 0.0, 0.0, 0.0, 0.0, 0.0, 0.84, 0.94, 1.4, 1.4, 1.47, 2.7, 3.39, 4.17, 5.0, 6.7, 7.27, 7.76, 8.18, 8.05, 8.4, 8.56, 8.29, 7.85, 7.85, 7.85, 8.0, 7.6, 8.05, 8.0, 8.0, 8.0, 8.0, 8.05, 7.6, 7.6, 7.54, 7.54, 7.54, 7.6, 7.6, 8.05, 8.05, 8.49, 8.44, 8.29, 6.94, 6.82, 6.11, 5.77, 6.55, 6.21, 4.89, 4.19, 4.19, 4.11, 3.63, 2.76, 1.83, 2.95, 4.11, 5.49, 6.18, 6.18, 5.95, 6.0, 6.16, 6.45, 6.71, 6.26, 6.17, 3.72, 6.34, 6.34, 6.34, 6.34, 6.64, 6.92, 6.92, 7.51, 7.51, 6.92, 6.59, 6.32, 8.42, 9.2, 9.2, 8.8, 8.43, 8.55, 8.42, 8.42, 8.18, 6.79, 6.98, 4.37, 1.4, 0.0, 0.0, 0.0, 0.0, 0.0, 0.94, 1.84, 2.83, 3.6, 2.64, 1.63, 1.84, 2.69, 2.49, 2.51, 3.51, 4.88, 5.89, 7.41, 8.18, 8.8, 8.4, 8.72, 8.77, 8.9, 8.94, 8.94, 8.49, 8.49, 8.45, 8.45, 8.45, 8.45, 8.49, 8.49, 8.05, 7.54, 7.54, 7.55, 8.0, 8.05, 8.05, 8.05, 8.05, 8.49, 8.44, 8.0, 7.12, 6.6, 5.37, 4.68, 4.42, 5.06, 4.89, 4.11, 3.49, 3.91, 3.47, 1.98, 1.98, 3.0, 5.06, 5.49, 5.58, 4.89, 4.89, 5.58, 6.0, 5.94, 6.17, 6.26, 5.26, 2.48, 6.34, 6.34, 6.34, 6.34, 6.34, 6.64, 6.92, 7.25, 7.51, 6.92, 6.32, 6.01, 8.42, 8.82, 10.0, 9.36, 9.42, 9.58, 8.79, 8.32, 8.67, 8.82, 8.17, 6.6, 5.06, 1.98, 0.0, 0.0, 0.0, 0.0, 0.0, 1.84, 4.26, 5.53, 4.95, 2.47, 1.99, 1.84, 0.0, 0.0, 1.33, 2.99, 4.83, 6.01, 7.28, 7.2, 8.17, 8.56, 8.56, 9.76, 9.39, 8.94, 9.39, 8.9, 8.9, 8.9, 8.9, 8.94, 8.94, 8.49, 8.05, 7.55, 8.0, 8.0, 8.0, 8.44, 8.05, 8.05, 8.49, 8.49, 8.05, 7.6, 6.65, 6.17, 4.98, 3.49, 2.8, 2.8, 3.91, 2.99, 2.99, 2.8, 2.8, 1.72, 1.84, 3.2, 4.87, 5.58, 4.98, 4.29, 3.48, 4.22, 5.26, 5.73, 5.73, 5.36, 4.24, -0.0, 5.72, 6.01, 6.34, 6.34, 6.34, 6.34, 6.95, 6.95, 6.95, 6.95, 6.34, 5.72, 7.27, 8.47, 9.86, 8.67, 9.84, 10.04, 9.27, 9.05, 9.03, 9.6, 10.45, 10.25, 8.94, 8.49, 6.71, 5.51, 4.92, 1.63, 0.0, 1.33, 4.2, 5.86, 5.06, 3.48, -0.0, -2.48, -5.36, -3.47, 0.0, 4.02, 4.92, 5.94, 6.51, 7.45, 7.15, 8.05, 8.44, 9.39, 8.05, 8.94, 8.94, 9.35, 9.35, 8.9, 9.39, 9.39, 8.94, 8.94, 8.05, 8.05, 8.05, 8.05, 8.05, 8.44, 8.49, 8.49, 8.49, 8.05, 8.05, 7.6, 7.15, 6.17, 5.26, 4.02, 2.84, 1.05, 2.16, 1.99, 1.66, 2.4, 2.2, 2.4, 2.35, 3.69, 4.56, 5.95, 5.4, 4.4, 3.35, 3.58, 4.92, 5.81, 5.81, 4.47, 2.53, -0.0, 5.72, 5.72, 6.06, 6.06, 6.35, 6.35, 6.67, 6.67, 6.67, 6.67, 6.35, 5.72, 7.51, 7.26, 7.42, 7.42, 8.64, 9.0, 9.04, 8.47, 9.32, 9.45, 9.92, 10.24, 9.39, 9.83, 8.48, 7.28, 7.89, 6.94, 3.72, 2.4, 4.92, 6.26, 5.81, 4.77, -0.0, -1.49, -1.98, -1.7, -0.0, 1.63, 3.2, 4.56, 5.37, 5.49, 7.89, 8.06, 8.0, 8.0, 8.94, 8.0, 8.45, 8.94, 8.94, 8.94, 8.94, 8.94, 8.94, 8.49, 8.0, 8.0, 8.05, 7.6, 7.6, 8.05, 8.49, 8.49, 8.49, 8.49, 8.05, 7.15, 7.15, 5.81, 5.29, 4.98, 4.47, 2.53, 1.08, 0.0, 0.0, 0.79, 0.98, 1.83, 3.11, 3.79, 4.56, 5.84, 5.43, 5.51, 4.02, 3.39, 3.9, 5.81, 5.36, 4.02, -0.0, -1.6, 5.72, 5.72, 6.06, 6.35, 6.35, 6.35, 6.67, 6.97, 6.97, 6.97, 6.35, 6.98, 7.3, 6.97, 7.26, 6.24, 7.36, 7.1, 7.85, 6.24, 6.58, 6.3, 7.33, 6.9, 7.15, 7.06, 6.9, 6.44, 7.47, 7.6, 4.4, -0.0, -0.0, 3.4, 4.83, 5.06, 1.63, -0.0, 1.49, 2.99, 3.55, 3.55, 3.72, 3.91, 4.43, 5.58, 6.21, 7.12, 7.85, 7.85, 8.0, 8.05, 8.49, 8.49, 8.9, 8.9, 9.21, 8.77, 8.56, 8.06, 8.06, 7.37, 7.6, 6.2, 7.08, 8.0, 8.49, 8.49, 8.46, 8.9, 8.33, 7.45, 6.51, 5.75, 4.92, 4.92, 4.82, 4.02, 2.4, 0.0, 0.0, 0.0, 0.0, 1.83, 3.22, 3.9, 4.95, 6.08, 6.44, 6.4, 5.29, 3.47, 4.24, 5.36, 5.81, 4.02, -0.0, -1.8, 5.72, 5.72, 6.06, 6.35, 6.35, 6.35, 6.67, 6.97, 6.97, 6.97, 6.69, 7.61, 8.53, 9.02, 10.37, 8.22, 7.42, 3.84, 4.11, 4.65, 7.06, 6.79, 5.95, 4.34, 2.2, 1.98, 3.47, 3.47, 5.21, 6.0, 3.72, 1.1, 1.03, 2.32, 2.99, 4.29, 4.56, 4.37, 3.77, 5.24, 5.69, 5.37, 5.49, 4.74, 4.74, 4.89, 6.0, 6.88, 7.54, 7.6, 8.05, 8.05, 8.44, 8.06, 8.3, 8.4, 8.8, 8.4, 7.82, 7.6, 6.64, 5.7, 4.89, 5.58, 6.57, 8.0, 8.94, 9.24, 8.99, 8.72, 8.3, 7.35, 6.4, 5.75, 5.09, 4.38, 4.02, 4.47, 4.02, 3.13, 0.0, 0.0, 0.0, 1.83, 2.4, 3.9, 5.37, 6.01, 6.68, 7.07, 5.75, 3.82, 2.84, 5.26, 6.26, 4.92, 1.6, -0.0, 6.06, 6.06, 6.06, 6.35, 6.35, 6.67, 6.67, 6.97, 6.97, 6.97, 7.3, 7.6, 8.53, 10.23, 11.36, 11.12, 9.27, 7.74, 7.87, 8.42, 8.92, 8.94, 7.58, 9.54, 5.72, 3.47, 1.84, 0.99, 2.48, 4.11, 4.74, 3.97, 3.2, 3.91, 3.91, 3.47, 4.29, 5.37, 5.69, 6.45, 7.2, 6.55, 5.15, 3.0, 2.8, 2.99, 4.74, 6.51, 7.15, 7.6, 7.08, 7.37, 7.63, 8.06, 7.82, 7.81, 7.81, 7.06, 5.53, 4.24, 1.99, 2.82, 3.77, 5.49, 6.99, 8.0, 8.94, 9.49, 8.82, 8.42, 7.69, 6.7, 6.44, 5.58, 4.98, 4.29, 3.72, 3.2, 3.13, 3.58, 3.82, 0.0, 0.0, 0.88, 2.29, 3.79, 5.21, 6.24, 6.64, 6.7, 5.2, 3.13, 2.98, 4.82, 6.26, 5.36, 3.6, 1.6, 6.06, 6.06, 6.06, 6.35, 6.35, 6.67, 6.67, 6.97, 6.97, 7.27, 7.59, 7.9, 8.82, 10.01, 11.62, 13.24, 13.41, 12.84, 12.5, 12.52, 12.52, 12.92, 12.84, 11.49, 9.23, 6.04, 3.7, 2.4, 1.86, 1.86, 4.6, 5.49, 4.58, 4.74, 4.29, 4.58, 4.74, 5.37, 6.18, 7.2, 7.2, 6.6, 4.89, 1.99, 1.52, 1.52, 3.72, 5.58, 6.51, 6.71, 5.81, 6.65, 6.65, 6.26, 7.15, 7.15, 7.45, 4.83, 0.0, -3.22, -0.0, 1.84, 3.6, 4.58, 5.95, 7.53, 8.46, 9.35, 7.81, 6.83, 5.46, 5.36, 4.68, 4.87, 4.19, 3.49, 2.48, 1.6, 1.2, 3.39, 3.9, 3.48, 0.88, 0.96, 1.84, 3.6, 5.21, 5.86, 5.94, 6.06, 4.84, 3.47, 3.13, 5.36, 6.2, 5.81, 4.47, 3.2, 6.06, 6.06, 6.06, 6.65, 6.95, 6.95, 6.67, 6.97, 7.27, 7.59, 7.59, 7.9, 8.5, 9.66, 11.07, 12.67, 13.74, 13.88, 13.67, 13.81, 13.85, 13.86, 13.4, 12.47, 10.67, 8.86, 6.61, 4.77, 3.39, 3.07, 3.53, 5.51, 5.72, 4.43, 4.74, 4.58, 4.74, 6.18, 6.8, 7.37, 7.37, 6.0, 4.43, 1.84, -0.0, 1.41, 1.99, 4.74, 4.74, 5.06, 6.4, 6.51, 4.43, 1.63, 3.0, 3.63, 6.8, 5.94, -3.48, -3.55, -0.89, 1.33, 2.83, 2.99, 3.97, 5.49, 7.12, 7.42, 7.94, 3.77, 2.57, 2.69, 2.83, 3.6, 2.82, 2.16, 1.19, 0.0, 0.0, 2.23, 4.09, 4.4, 2.68, 1.83, 2.35, 3.6, 4.34, 4.12, 4.46, 4.95, 4.81, 3.93, 3.58, 5.51, 6.07, 6.26, 5.36, 4.24, 6.06, 6.06, 6.06, 6.35, 6.95, 6.67, 6.67, 6.97, 7.27, 7.59, 7.86, 8.19, 8.5, 9.08, 10.51, 11.88, 13.02, 13.99, 13.88, 14.0, 13.75, 13.81, 13.41, 12.96, 11.61, 9.77, 7.97, 6.61, 6.16, 5.78, 5.36, 4.92, 7.01, 5.72, 5.72, 5.37, 6.63, 6.44, 8.17, 7.1, 6.64, 6.51, 3.79, -0.0, -0.0, -0.0, 1.41, 2.8, 3.0, 3.72, 5.06, 3.72, 1.63, 1.63, 1.52, 3.47, 6.0, 5.73, 3.58, -0.0, -0.0, 1.58, 2.82, 2.82, 3.6, 4.83, 6.44, 7.28, 7.89, 5.58, 0.0, 0.0, 0.0, 0.0, 0.0, 0.0, 0.0, 0.0, 0.0, 1.08, 2.2, 3.22, 3.48, 3.35, 4.11, 4.58, 2.82, 1.84, 1.63, 3.55, 4.58, 3.72, 4.11, 4.84, 6.16, 5.81, 4.92, 4.92, 6.06, 6.06, 6.06, 6.35, 6.67, 6.67, 6.97, 7.27, 7.27, 7.59, 7.86, 8.19, 8.78, 9.37, 9.94, 10.96, 12.28, 13.32, 13.57, 13.88, 13.67, 13.75, 13.4, 12.96, 12.06, 11.11, 9.77, 9.32, 8.47, 8.05, 7.15, 6.71, 5.81, 7.94, 6.4, 5.15, 6.11, 7.2, 7.94, 7.15, 5.26, 2.95, 1.84, 1.41, -0.0, -0.0, -0.0, 1.41, 2.8, 2.8, 2.8, 3.0, 3.0, 3.47, 3.22, 4.84, 6.51, 6.4, 6.01, 4.0, 2.82, 3.0, 3.0, 4.02, 5.06, 5.37, 4.74, 7.67, 8.48, 6.36, -1.96, -4.29, -4.4, -4.02, -2.84, -0.0, 0.0, 0.0, 0.0, 0.0, 1.14, 2.8, 3.91, 3.91, 4.11, 4.4, 3.79, 0.0, 0.0, 1.84, 3.55, 3.11, 4.43, 5.43, 5.75, 5.59, 4.92, 4.92, 6.06, 6.06, 6.35, 6.35, 6.67, 6.67, 6.97, 7.27, 7.27, 7.59, 7.86, 8.19, 8.78, 9.02, 9.86, 10.41, 11.36, 12.62, 13.09, 13.26, 13.54, 13.74, 13.36, 12.96, 12.47, 11.95, 11.57, 10.71, 9.83, 8.94, 8.47, 7.51, 6.6, 8.05, 5.51, 5.46, 5.49, 6.08, 6.0, 4.84, 1.84, 0.96, 1.32, 0.96, 1.63, 1.63, 1.52, 1.52, 3.22, 3.22, 3.22, 3.47, 3.47, 3.47, 4.84, 5.6, 6.4, 6.52, 5.37, 5.69, 4.29, 4.43, 4.84, 4.84, 5.6, 4.98, 6.8, 7.47, 8.33, 5.2, -6.8, -5.81, -4.11, -1.98, -0.0, 1.98, 2.48, 0.0, 0.0, 0.0, 0.95, 1.96, 2.82, 2.6, 3.22, 2.84, 3.58, 0.0, 0.89, 2.82, 2.47, 2.35, 3.9, 4.74, 5.58, 4.84, 4.57, 4.57, 6.06, 6.06, 6.35, 6.35, 6.67, 6.67, 6.97, 7.27, 7.27, 7.86, 7.86, 8.19, 8.45, 9.02, 9.3, 10.3, 11.22, 12.11, 12.6, 12.94, 13.54, 13.67, 13.3, 12.52, 12.5, 12.06, 11.18, 10.27, 9.32, 8.67, 8.17, 7.26, 6.3, 5.72, 4.92, 6.02, 4.98, 5.21, 4.43, 2.8, 1.4, 1.49, 1.63, 1.73, 2.66, 3.91, 4.29, 4.02, 3.47, 3.22, 3.22, 3.22, 3.22, 4.84, 4.84, 5.6, 6.0, 5.72, 6.08, 5.72, 6.4, 6.0, 6.07, 5.64, 6.26, 5.29, 6.17, 8.05, 8.49, 7.15, -0.0, -0.0, 2.12, 3.55, 4.42, 5.69, 6.18, 5.26, 1.19, 0.0, 0.0, 0.95, 0.95, 1.7, 1.19, 0.0, 1.27, 0.0, 0.96, 1.98, 1.84, 1.96, 2.35, 3.9, 4.74, 4.11, 3.16, 3.16, 6.35, 6.35, 6.35, 6.35, 6.67, 6.67, 6.97, 7.27, 7.27, 7.86, 7.86, 8.19, 8.45, 8.73, 9.3, 11.28, 10.04, 10.83, 11.12, 12.04, 13.54, 14.31, 12.78, 13.01, 12.27, 12.75, 6.79, 9.66, 9.24, 5.6, 5.6, 5.6, 5.6, 5.81, 5.57, 4.89, 4.47, 4.47, 5.51, 4.74, 2.99, 2.99, 3.47, 4.74, 5.37, 6.63, 6.28, 5.72, 4.43, 3.47, 3.47, 3.22, 3.22, 3.22, 4.43, 6.0, 6.0, 5.72, 6.52, 7.06, 7.01, 6.51, 6.51, 5.36, 5.36, 5.36, 6.26, 7.6, 8.49, 10.2, 9.86, 9.03, 10.0, 10.32, 10.32, 9.66, 9.06, 8.44, 6.17, 1.14, 0.0, 1.14, 1.05, 0.0, 0.0, 0.0, 1.41, 1.13, 1.08, 1.66, 1.84, 1.01, 1.84, 2.35, 3.72, 4.11, 2.95, 2.95, 6.35, 6.35, 6.35, 6.35, 6.67, 6.67, 6.97, 7.55, 7.55, 8.15, 8.15, 8.15, 8.73, 8.73, 9.02, 9.5, 9.76, 9.48, 10.66, 11.75, 14.17, 12.62, 11.36, 12.27, 11.64, 10.04, 7.82, 3.35, 2.68, 2.0, 1.86, 2.15, 3.35, 4.4, 4.9, 4.66, 4.77, 4.77, 4.92, 4.89, 4.8, 5.24, 5.24, 5.09, 5.31, 8.0, 7.6, 6.52, 4.43, 3.47, 2.8, 2.8, 2.8, 3.47, 3.79, 4.89, 5.72, 5.21, 6.57, 7.94, 7.15, 6.71, 6.71, 6.26, 5.36, 5.36, 5.81, 7.6, 8.94, 9.68, 10.68, 12.53, 14.4, 15.12, 14.3, 12.52, 11.18, 9.8, 7.08, 2.2, 0.0, -1.41, -2.84, -2.84, -1.41, -0.98, 0.0, 0.0, 0.99, 2.53, 3.48, 1.05, 0.0, 1.84, 3.22, 3.79, 3.16, 3.16, 6.35, 6.35, 6.35, 6.35, 6.67, 6.67, 6.95, 7.55, 7.55, 7.55, 8.15, 8.15, 8.73, 8.73, 9.02, 9.86, 9.76, 9.21, 9.21, 11.9, 12.89, 9.63, 8.65, 8.38, 9.21, 8.8, 6.84, 4.44, 2.68, 1.79, 1.34, 0.89, 1.7, 2.91, 3.7, 4.19, 4.19, 4.34, 4.8, 4.89, 5.36, 5.36, 5.33, 5.24, 5.09, 8.0, 7.6, 6.52, 3.47, 1.52, 1.52, 1.52, 1.52, 2.8, 3.0, 3.91, 5.15, 5.82, 7.94, 7.6, 7.15, 6.71, 6.71, 6.26, 4.92, 4.92, 5.36, 6.64, 7.85, 8.56, 9.97, 11.84, 13.83, 14.28, 12.74, 11.11, 8.91, 9.49, 9.79, 8.44, 4.77, -2.68, -4.92, -3.9, -2.84, -1.41, -1.27, 0.0, 0.0, 2.4, 4.02, 3.82, 1.08, 0.0, 1.83, 3.58, 3.6, 3.6, 6.35, 6.35, 6.35, 6.35, 6.35, 6.67, 6.95, 7.55, 7.55, 7.55, 8.15, 8.15, 8.73, 8.73, 9.3, 9.3, 9.5, 9.76, 10.41, 11.62, 11.36, 9.51, 7.31, 7.07, 7.9, 9.01, 9.11, 8.47, 7.15, 5.78, 3.99, 2.63, 2.17, 2.24, 3.07, 3.87, 4.3, 4.34, 4.77, 4.89, 5.33, 5.36, 5.33, 5.24, 4.9, 5.37, 8.0, 5.36, 1.52, 1.63, 1.63, 1.52, 1.52, 1.52, 3.0, 4.02, 5.49, 6.6, 7.94, 7.15, 5.51, 5.51, 5.51, 5.26, 4.47, 4.47, 4.92, 5.73, 6.45, 7.47, 8.91, 10.65, 8.49, 5.4, 4.4, 5.75, 6.94, 7.47, 8.67, 9.36, 9.39, 6.45, 2.68, -3.35, -2.2, -1.19, -1.19, -1.27, 0.0, 2.0, 3.58, 4.02, 2.4, 0.0, 1.9, 3.13, 4.02, 4.02, 6.06, 6.06, 6.06, 6.35, 6.35, 6.67, 6.95, 7.55, 7.55, 7.55, 8.15, 8.15, 8.73, 8.73, 9.3, 9.3, 9.86, 9.86, 10.79, 11.5, 12.11, 11.56, 10.34, 8.48, 7.81, 8.0, 8.3, 9.11, 8.87, 8.47, 7.6, 5.81, 4.02, 3.13, 3.13, 3.54, 4.34, 4.77, 4.8, 4.89, 4.89, 4.92, 4.89, 4.66, 4.55, 4.71, 5.37, 1.63, -0.0, -0.0, 1.4, 1.63, 1.52, 1.63, 1.63, 3.0, 4.74, 6.18, 7.47, 5.29, 4.54, 4.54, 4.29, 3.82, 3.58, 3.82, 4.34, 4.82, 5.73, 6.2, 7.94, 8.05, -5.7, -4.8, -0.0, 2.68, 3.95, 5.09, 6.28, 7.89, 8.49, 9.39, 7.6, 3.2, -1.19, -1.99, -2.4, -1.19, 0.0, 0.0, 2.84, 2.97, 1.2, -0.0, -0.0, 0.87, 4.0, 4.0, 6.06, 6.06, 6.06, 6.06, 6.35, 6.95, 6.95, 7.23, 7.55, 7.55, 8.15, 8.15, 8.38, 8.73, 8.94, 9.3, 9.86, 9.86, 10.41, 11.22, 11.99, 12.11, 11.87, 11.71, 9.91, 8.91, 8.0, 8.48, 8.64, 8.79, 8.42, 7.58, 6.23, 4.92, 4.02, 4.02, 4.44, 4.77, 4.8, 4.8, 4.89, 4.92, 4.92, 4.77, 4.4, 3.48, 3.2, 1.4, 1.25, 1.25, 1.25, 1.4, -0.0, 1.32, 1.63, 3.0, 3.91, 5.15, 6.44, 5.81, 2.95, 2.2, 2.53, 1.9, 1.6, 3.72, 4.4, 5.51, 5.36, 6.26, 7.6, 5.81, -4.4, -4.77, -0.0, 2.84, 4.0, 4.47, 5.09, 4.8, 7.21, 8.19, 8.82, 6.98, 4.24, 0.0, -2.21, -3.13, 2.68, -2.53, 0.0, -2.24, -1.8, -0.76, -0.0, 1.66, 5.36, 5.36, 6.06, 6.06, 6.06, 6.06, 6.06, 6.35, 6.95, 6.95, 7.55, 7.55, 7.81, 8.15, 8.38, 8.73, 8.94, 9.3, 9.3, 9.86, 10.41, 11.22, 11.36, 11.6, 11.92, 12.3, 11.99, 10.81, 9.39, 8.48, 8.06, 8.64, 8.33, 8.3, 7.51, 6.61, 5.78, 5.33, 4.88, 4.88, 4.8, 4.8, 4.89, 4.89, 4.92, 4.44, 4.3, 3.35, 2.84, 2.48, 2.22, 1.57, 1.73, 1.49, -0.0, -0.0, 3.0, 3.47, 4.43, 4.11, 5.06, 5.21, 4.47, 1.4, 2.24, -0.0, -0.0, 2.2, 4.29, 5.26, 5.81, 7.37, 8.77, 8.49, 5.36, -3.6, -3.2, 1.79, 2.4, 3.39, 4.0, 3.48, 5.46, 7.35, 8.4, 8.8, 8.05, 5.7, 2.84, -0.0, -0.0, -0.0, -3.72, -4.82, -3.35, -1.99, 0.79, 4.85, 6.98, 6.98, 6.34, 6.34, 6.34, 6.06, 6.06, 6.34, 6.95, 6.95, 7.55, 7.55, 7.81, 8.15, 8.15, 8.73, 8.73, 9.3, 9.3, 9.86, 10.41, 10.41, 10.83, 11.47, 11.6, 11.92, 12.11, 11.39, 10.66, 9.43, 8.48, 8.21, 8.17, 8.17, 7.87, 7.4, 6.94, 6.16, 5.7, 5.24, 4.8, 4.8, 4.8, 4.89, 4.92, 4.47, 3.98, 3.82, 3.2, 2.79, 1.8, 1.13, 0.57, -0.0, -0.0, -0.0, 1.4, 3.0, 3.47, 3.22, 3.47, 5.06, 6.0, 5.51, 1.6, -0.0, -0.0, 1.99, 4.98, 5.94, 6.64, 7.12, 7.76, 9.46, 5.7, 0.0, -2.4, -1.41, 0.0, 2.68, 3.58, 2.84, 3.93, 5.51, 6.65, 7.6, 8.01, 7.54, 5.4, 2.48, 1.08, 0.98, -1.27, -4.8, -4.22, -1.2, 3.13, 6.7, 7.2, 7.2, 6.34, 6.34, 6.34, 6.34, 6.34, 6.34, 6.65, 6.95, 7.55, 7.55, 7.55, 8.15, 8.15, 8.73, 8.73, 8.94, 9.3, 9.86, 9.86, 10.41, 10.68, 10.83, 11.08, 11.41, 11.41, 11.62, 11.33, 10.6, 9.7, 8.96, 8.64, 8.48, 8.17, 7.74, 7.69, 7.26, 6.79, 6.3, 5.99, 5.57, 5.09, 5.09, 4.8, 4.47, 4.02, 3.98, 2.97, 2.5, 1.88, 1.16, 0.61, -0.0, -0.0, -0.0, 0.89, 1.98, 3.0, 1.52, 2.99, 4.11, 6.8, 6.0, 4.74, 0.96, 1.63, 3.22, 4.98, 6.64, 7.15, 7.37, 8.06, 8.06, 6.94, 4.29, 0.0, -0.96, -2.4, -1.58, 2.68, 3.13, -0.0, -0.0, 2.98, 4.85, 6.21, 6.26, 5.81, 4.34, 3.2, 1.2, -0.0, -2.24, -3.13, 0.0, 4.11, 6.96, 6.7, 6.7, 6.34, 6.34, 6.34, 6.34, 6.34, 6.34, 6.65, 6.95, 6.95, 7.55, 7.55, 8.15, 8.15, 8.38, 8.73, 8.94, 9.3, 9.5, 9.86, 10.04, 10.3, 10.3, 10.68, 11.08, 11.31, 11.21, 11.12, 10.62, 10.42, 9.92, 9.7, 8.79, 8.48, 8.0, 8.0, 7.51, 7.09, 6.6, 6.3, 5.81, 5.4, 5.09, 4.8, 4.89, 4.34, 3.39, 2.6, 2.4, 1.9, 1.2, 0.54, -0.0, -0.0, -0.0, -0.0, 1.03, 1.63, 1.63, 2.8, 4.43, 5.6, 5.6, 3.91, 1.84, 1.98, 3.0, 5.94, 6.71, 7.15, 8.0, 7.85, 8.06, 7.81, 6.45, 4.65, 0.0, -3.91, -4.29, 0.0, 2.24, -3.93, -2.84, -1.0, 1.0, 3.13, 4.02, 4.02, 4.47, 2.97, 1.58, 0.0, -0.98, -1.98, 0.76, 4.46, 6.24, 5.59, 5.59, 6.34, 6.34, 6.34, 6.34, 6.34, 6.34, 6.65, 6.95, 6.95, 6.95, 7.55, 7.81, 8.15, 8.15, 8.73, 8.73, 9.3, 9.3, 9.86, 10.13, 10.3, 10.3, 10.55, 10.55, 10.91, 10.4, 10.4, 10.21, 10.21, 9.92, 9.51, 9.42, 9.21, 8.72, 8.42, 8.0, 7.51, 7.51, 7.01, 6.51, 5.6, 5.4, 5.09, 6.64, 5.36, 1.49, 0.71, 0.0, -0.0, 0.99, 0.57, -0.0, -0.0, -0.54, -0.0, -0.0, -0.0, 1.32, 2.8, 3.72, 4.89, 3.79, 1.84, 2.12, 3.0, 4.89, 6.45, 6.71, 7.37, 7.85, 8.06, 7.63, 7.12, 6.45, 6.64, 4.77, -1.8, -3.91, -1.99, 0.0, -3.58, -2.21, -2.15, -0.95, -0.0, 1.34, 2.23, 3.93, 2.95, 1.08, 0.0, 0.0, 0.0, 1.55, 3.51, 4.83, 4.37, 4.37, 6.34, 6.34, 6.34, 6.34, 6.34, 6.34, 6.65, 6.95, 6.95, 6.95, 7.55, 7.81, 8.15, 8.15, 8.38, 8.73, 8.94, 9.3, 9.5, 9.76, 9.76, 10.13, 9.76, 10.02, 10.16, 10.16, 10.4, 10.21, 9.71, 9.92, 9.51, 9.51, 9.01, 9.21, 8.72, 8.22, 7.81, 7.31, 7.31, 6.8, 6.51, 5.6, 5.6, 5.24, 4.92, 5.36, 0.0, -0.89, -0.0, -0.0, 0.6, -0.0, -0.0, -0.0, -0.0, -0.0, -0.0, 1.13, 2.8, 2.8, 2.99, 2.99, 1.98, 2.8, 4.11, 4.89, 5.6, 7.15, 5.58, 6.55, 7.2, 6.82, 5.58, 4.98, 5.26, 6.26, 4.92, 0.0, -1.98, 0.0, -1.27, -1.7, -2.4, -1.73, -0.89, 0.89, 2.21, 3.07, 4.11, 2.53, 1.66, 0.88, 0.83, 1.75, 2.9, 4.0, 2.99, 2.99, 6.34, 6.34, 6.34, 6.34, 6.34, 6.34, 6.65, 6.95, 6.95, 6.95, 7.55, 7.55, 8.15, 8.15, 8.38, 8.73, 8.94, 9.3, 9.58, 9.76, 9.76, 9.76, 9.76, 9.76, 10.02, 10.02, 9.88, 9.71, 9.71, 9.71, 9.71, 9.71, 9.42, 9.01, 9.01, 8.72, 8.22, 7.81, 7.31, 7.31, 6.8, 6.28, 6.0, 5.4, 5.24, 6.2, 4.02, 1.2, 1.58, 1.9, 1.58, 0.8, -0.0, -0.0, -0.0, -0.0, 0.54, 1.0, 1.13, 1.84, 2.99, 3.22, 3.91, 4.11, 4.98, 5.4, 5.51, 7.15, 6.0, 5.1, 5.24, 6.18, 5.37, 3.48, 2.48, 5.26, 6.26, 5.26, 1.19, -1.03, -0.96, -2.21, -1.79, -1.79, -1.34, 0.45, 0.8, 3.83, 4.8, 4.66, 4.38, 4.15, 4.19, 3.72, 2.82, 2.35, 0.82, 0.82, 6.34, 6.34, 6.34, 6.34, 6.34, 6.34, 6.34, 6.95, 6.95, 6.95, 7.55, 7.55, 7.55, 8.15, 8.15, 8.38, 8.73, 8.94, 9.21, 9.21, 9.21, 9.21, 9.21, 9.38, 9.63, 9.63, 9.63, 9.35, 11.2, 9.2, 9.35, 9.35, 9.2, 9.2, 9.01, 8.51, 8.51, 8.22, 7.71, 7.31, 7.2, 6.8, 6.28, 6.0, 5.81, 6.16, 6.26, 5.7, 5.26, 4.8, 3.87, 2.4, 1.26, 0.6, 0.8, 0.57, 0.54, 1.2, 1.16, 1.61, 4.11, 4.89, 4.54, 4.6, 5.51, 5.73, 5.73, 7.01, 7.15, 6.51, 4.29, 5.51, 7.45, 5.94, 1.19, 2.0, 4.98, 6.45, 5.37, 0.0, -1.83, -2.68, -2.84, -1.7, -1.7, -0.63, 0.0, 1.7, 4.98, 4.66, 4.41, 4.92, 5.31, 5.31, 3.07, 1.9, 0.0, 0.0, 6.34, 6.34, 6.34, 6.34, 6.34, 6.34, 6.34, 6.95, 6.95, 6.95, 7.55, 7.55, 7.55, 7.81, 8.15, 8.38, 8.73, 8.73, 9.21, 9.21, 9.21, 9.21, 9.21, 9.21, 9.48, 9.48, 9.1, 9.1, 9.35, 10.66, 7.9, 7.9, 8.43, 8.68, 8.68, 8.8, 8.51, 8.0, 7.6, 7.48, 7.08, 7.2, 6.8, 6.28, 6.1, 6.3, 6.68, 7.15, 7.15, 6.71, 5.78, 4.34, 2.4, 1.49, 1.26, 1.58, 1.58, 1.2, 1.2, 1.88, 3.14, 4.54, 5.6, 4.98, 5.4, 5.26, 5.26, 5.73, 7.45, 7.45, 5.94, 6.2, 7.15, 6.45, 3.22, 0.0, 1.99, 5.58, 6.4, 3.48, 0.0, -2.53, -2.53, -2.41, -1.24, -0.99, 0.0, 1.26, 4.98, 4.98, 4.98, 4.38, 4.92, 4.92, 4.66, 3.6, 3.45, 3.45, 6.06, 6.06, 6.34, 6.34, 6.34, 6.34, 6.34, 6.95, 6.95, 6.95, 7.55, 7.55, 7.55, 7.55, 8.15, 8.15, 8.38, 8.38, 9.01, 9.21, 9.21, 9.21, 9.21, 9.21, 9.21, 9.48, 9.1, 9.48, 9.63, 9.48, 8.68, 7.61, 7.61, 7.52, 8.15, 8.68, 8.68, 8.51, 8.0, 7.48, 7.08, 7.08, 7.2, 6.8, 6.6, 6.79, 6.94, 7.07, 7.13, 7.15, 6.71, 5.34, 3.98, 2.63, 2.0, 2.0, 2.4, 2.4, 1.9, 2.5, 5.36, 4.43, 4.84, 5.64, 4.57, 4.4, 4.57, 4.82, 6.51, 6.94, 6.21, 7.47, 8.05, 7.53, 4.89, 0.0, 0.0, 2.64, 5.06, 4.81, 2.3, 0.0, -0.81, -1.55, -1.83, -1.0, -0.44, 0.53, 4.43, 4.43, 4.19, 4.57, 4.41, 4.92, 4.92, 5.09, 5.59, 5.59, 6.06, 6.06, 6.34, 6.34, 6.34, 6.34, 6.34, 6.95, 6.95, 6.95, 7.27, 7.55, 7.55, 7.55, 7.55, 8.15, 8.15, 8.38, 8.65, 8.65, 8.65, 8.65, 8.84, 8.84, 8.84, 9.1, 9.1, 9.1, 9.48, 9.63, 9.2, 8.51, 8.0, 7.23, 7.23, 7.76, 8.15, 8.28, 8.51, 8.0, 7.48, 7.08, 7.31, 6.8, 7.09, 7.26, 7.26, 7.4, 7.07, 7.13, 6.71, 5.81, 4.47, 3.53, 3.07, 2.63, 2.49, 2.49, 2.91, 3.39, 3.6, 6.0, 5.6, 6.07, 5.51, 5.09, 4.4, 4.98, 5.26, 5.4, 5.51, 7.45, 8.49, 8.29, 7.12, 3.22, 1.03, 1.73, 2.67, 3.55, 3.22, 2.53, 0.0, -0.88, -1.6, -1.6, 0.0, 1.84, 3.55, 4.29, 4.11, 4.6, 4.98, 4.85, 5.31, 5.81, 5.81, 5.81, 6.06, 6.06, 6.34, 6.34, 6.34, 6.34, 6.34, 6.95, 6.95, 6.95, 7.27, 7.55, 7.55, 7.55, 7.55, 7.55, 8.15, 8.38, 8.65, 8.65, 8.65, 8.65, 8.65, 8.65, 8.84, 9.1, 9.1, 9.1, 9.1, 9.1, 9.35, 9.2, 9.01, 8.0, 7.48, 7.23, 7.23, 7.76, 8.15, 8.0, 7.6, 7.48, 7.31, 7.31, 7.31, 7.51, 7.69, 7.4, 7.4, 7.07, 6.68, 5.81, 4.92, 4.02, 3.58, 3.13, 3.07, 3.09, 3.53, 3.98, 3.98, 4.11, 7.01, 5.51, 4.98, 5.09, 4.77, 5.26, 5.26, 5.26, 6.51, 6.2, 8.94, 8.94, 9.24, 7.53, 5.06, 2.82, 1.84, 1.55, 2.47, 3.22, 3.22, 0.88, -0.82, -0.83, 0.0, 2.51, 3.55, 3.33, 3.72, 4.43, 4.89, 5.21, 5.34, 5.75, 6.26, 6.26, 6.06, 6.06, 6.06, 6.34, 6.34, 6.34, 6.34, 6.95, 6.95, 6.95, 6.95, 7.55, 7.55, 7.55, 7.55, 7.55, 7.81, 8.15, 8.65, 8.65, 8.65, 8.65, 8.65, 8.65, 8.65, 8.93, 8.93, 9.1, 9.1, 9.1, 9.1, 9.35, 9.2, 8.8, 8.51, 7.48, 7.48, 7.23, 7.61, 7.76, 8.0, 7.48, 7.31, 8.8, 6.8, 7.2, 7.31, 7.51, 7.26, 6.94, 6.61, 6.23, 5.36, 4.47, 4.02, 3.58, 3.58, 3.58, 4.02, 4.02, 4.44, 4.44, 7.01, 6.17, 5.4, 5.09, 4.47, 4.92, 4.92, 4.77, 4.82, 5.73, 8.05, 9.39, 9.49, 8.8, 7.82, 6.45, 3.77, 1.63, 0.83, 2.47, 3.9, 3.47, 1.72, 0.0, 0.79, 1.73, 2.51, 2.51, 3.4, 4.03, 4.42, 4.16, 4.58, 4.74, 5.09, 6.07, 5.72, 5.72, 6.06, 6.34, 6.34, 6.34, 6.34, 6.65, 6.95, 6.95, 6.95, 6.95, 7.55, 7.55, 7.55, 7.55, 7.55, 7.81, 8.44, 8.65, 8.65, 8.65, 8.65, 8.65, 8.65, 8.93, 8.93, 8.93, 8.93, 8.55, 8.55, 8.55, 8.96, 9.2, 9.2, 8.51, 8.0, 7.48, 7.48, 7.48, 7.48, 7.48, 7.08, 9.13, 7.01, 6.95, 6.7, 6.95, 7.01, 6.79, 6.51, 6.16, 5.34, 4.88, 4.02, 4.02, 3.58, 4.02, 4.02, 4.47, 4.47, 4.44, 7.45, 5.73, 5.29, 5.81, 5.36, 4.92, 4.34, 3.9, 4.34, 6.26, 7.6, 8.0, 8.72, 8.43, 7.76, 7.76, 6.06, 4.29, 2.29, 2.47, 3.9, 4.74, 3.9, 3.0, 2.51, 2.51, 2.67, 3.27, 3.45, 4.12, 4.34, 4.12, 4.26, 3.79, 4.01, 5.09, 5.72, 5.72, 6.06, 6.34, 6.34, 6.34, 6.34, 6.65, 6.95, 6.95, 6.95, 6.95, 7.23, 7.55, 7.55, 7.55, 7.55, 7.81, 8.08, 8.44, 8.65, 8.65, 8.29, 8.29, 8.29, 8.55, 8.55, 8.55, 8.55, 8.55, 8.55, 8.55, 8.82, 8.96, 9.2, 9.2, 8.51, 8.0, 7.6, 7.48, 7.48, 7.48, 7.48, 7.31, 9.66, 7.31, 6.15, 5.59, 5.49, 6.1, 6.3, 6.04, 5.7, 4.89, 4.44, 3.98, 3.98, 4.44, 4.47, 4.47, 4.47, 4.92, 5.36, 7.6, 6.26, 5.81, 4.47, 4.34, 4.0, 3.9, 4.47, 5.36, 8.05, 8.38, 8.48, 6.45, 6.18, 6.95, 7.81, 6.44, 5.15, 4.11, 4.43, 4.74, 5.43, 5.43, 4.74, 4.58, 4.95, 4.83, 5.1, 4.96, 5.21, 4.96, 4.5, 3.55, 2.4, 4.01, 5.72, 5.72, 5.72, 6.34, 6.34, 6.34, 6.34, 6.34, 6.95, 6.95, 6.95, 6.95, 6.95, 7.23, 7.55, 7.55, 7.55, 7.81, 8.08, 8.08, 8.08, 8.29, 8.29, 8.29, 8.29, 8.55, 8.55, 8.55, 8.55, 8.55, 8.82, 8.82, 8.82, 8.82, 8.82, 9.2, 8.8, 8.51, 8.0, 7.6, 7.48, 7.48, 7.48, 7.23, 8.0, 9.36, 5.6, 4.0, 4.07, 4.55, 5.31, 5.57, 5.26, 5.24, 4.88, 4.44, 4.34, 4.44, 4.88, 4.88, 4.92, 4.92, 7.6, 7.15, 6.71, 5.81, 3.9, 4.4, 3.9, 4.47, 4.92, 5.73, 7.89, 8.38, 8.38, 6.01, 4.34, 5.06, 6.04, 6.32, 6.08, 5.82, 5.15, 5.15, 5.46, 6.07, 6.8, 6.8, 6.82, 6.44, 6.79, 6.73, 6.73, 5.53, 4.42, 3.22, 2.2, 2.2, 5.72, 5.72, 6.01, 6.34, 6.34, 6.34, 6.34, 6.34, 6.34, 6.34, 6.64, 6.95, 6.95, 7.23, 7.23, 7.55, 7.55, 7.55, 8.08, 8.08, 8.08, 8.08, 8.08, 8.08, 8.29, 8.29, 8.55, 8.55, 8.55, 8.55, 8.82, 8.82, 8.82, 8.43, 8.43, 8.43, 8.68, 8.68, 8.51, 8.0, 8.0, 7.6, 7.48, 7.76, 8.28, 8.72, 7.4, 6.16, 5.09, 4.6, 4.6, 4.6, 4.66, 5.24, 4.8, 4.77, 4.77, 4.8, 4.8, 4.89, 4.89, 5.33, 5.36, 8.05, 7.01, 6.07, 5.36, 4.47, 4.02, 4.92, 5.36, 6.17, 7.89, 7.54, 8.82, 8.33, 5.06, 3.6, 3.63, 4.34, 4.46, 5.3, 5.37, 5.06, 5.09, 6.6, 6.8, 7.35, 7.76, 7.76, 7.42, 7.2, 7.2, 6.55, 3.79, 2.84, 2.84, 2.84, 5.72, 5.72, 6.01, 6.01, 6.34, 6.34, 6.34, 6.34, 6.34, 6.34, 6.64, 6.64, 6.95, 6.95, 7.23, 7.23, 7.55, 7.55, 8.08, 8.08, 8.08, 8.08, 8.08, 8.08, 8.08, 8.08, 8.37, 8.37, 8.55, 8.55, 8.82, 8.82, 8.43, 8.43, 8.43, 8.43, 8.43, 8.68, 8.68, 8.51, 8.0, 8.0, 8.0, 8.0, 7.76, 8.3, 8.64, 8.42, 7.52, 6.61, 5.26, 4.77, 4.77, 4.77, 4.8, 4.8, 5.09, 5.09, 5.09, 5.24, 5.24, 5.24, 5.34, 8.05, 7.45, 7.01, 6.07, 4.47, 4.02, 4.92, 5.73, 6.64, 6.94, 7.85, 8.45, 8.49, 8.05, 6.45, 5.24, 3.97, 4.42, 4.65, 5.06, 4.74, 4.74, 5.46, 6.8, 8.06, 8.56, 8.56, 8.14, 7.76, 7.63, 5.6, 4.29, 3.93, 3.93, 3.93, 6.01, 6.01, 6.01, 6.01, 6.34, 6.34, 6.04, 6.04, 6.34, 6.34, 6.34, 6.92, 6.92, 7.25, 7.51, 7.51, 7.23, 7.85, 7.85, 8.08, 8.08, 8.08, 8.08, 8.08, 8.08, 8.08, 8.37, 8.0, 8.0, 8.0, 8.43, 8.43, 8.43, 8.43, 8.43, 8.43, 8.43, 8.68, 8.68, 8.28, 8.51, 8.0, 8.0, 8.0, 7.48, 7.48, 8.0, 8.64, 8.77, 8.42, 7.58, 6.23, 5.33, 4.8, 4.8, 5.09, 5.09, 5.09, 5.09, 5.09, 5.24, 5.24, 5.7, 5.81, 8.38, 7.5, 7.01, 5.36, 4.34, 5.26, 6.51, 5.94, 6.94, 8.0, 8.49, 8.94, 9.35, 9.8, 9.39, 8.49, 8.0, 7.45, 7.45, 7.21, 7.21, 6.4, 6.94, 8.14, 9.24, 9.24, 9.76, 7.89, 7.85, 6.45, 5.6, 4.89, 4.89, 4.89, 5.72, 5.72, 5.72, 5.72, 5.72, 5.72, 6.04, 6.04, 6.04, 6.32, 6.64, 6.92, 6.92, 6.92, 7.51, 7.51, 7.51, 7.51, 7.85, 8.08, 8.08, 8.08, 8.08, 8.08, 8.08, 8.08, 8.0, 8.0, 8.0, 8.0, 8.0, 8.43, 8.43, 8.43, 8.43, 8.27, 7.9, 8.15, 8.15, 8.28, 8.28, 8.51, 8.51, 8.0, 7.48, 7.48, 7.71, 8.0, 8.48, 8.64, 8.33, 7.51, 6.68, 5.78, 5.24, 5.09, 5.09, 5.09, 5.09, 5.09, 5.09, 5.09, 5.26, 5.7, 5.81, 8.41, 8.05, 6.26, 6.17, 5.51, 5.94, 6.64, 7.1, 8.05, 8.49, 8.9, 9.35, 10.25, 10.7, 10.58, 11.05, 11.59, 11.18, 9.83, 9.36, 8.82, 8.19, 8.63, 9.06, 9.97, 9.29, 8.06, 8.06, 7.53, 6.6, 6.18, 6.18, 6.18, 5.72, 5.72, 5.72, 5.72, 5.72, 5.72, 6.01, 6.32, 6.32, 6.32, 6.32, 6.64, 6.92, 6.92, 7.25, 7.51, 7.51, 7.51, 7.51, 7.85, 8.08, 8.08, 8.08, 8.08, 8.08, 7.73, 8.0, 8.0, 8.0, 8.0, 8.0, 8.27, 8.43, 8.43, 8.27, 7.9, 8.15, 8.15, 8.15, 8.15, 8.28, 8.28, 8.51, 8.0, 7.6, 7.71, 7.31, 7.71, 8.0, 8.0, 8.17, 7.87, 7.51, 6.61, 5.24, 5.09, 5.09, 5.09, 5.09, 5.09, 5.09, 5.09, 5.24, 5.24, 5.36, 8.49, 8.05, 7.6, 7.01, 6.17, 6.64, 6.64, 7.6, 8.05, 8.49, 8.49, 9.39, 9.8, 10.25, 10.14, 11.14, 12.04, 12.07, 10.73, 10.7, 10.16, 9.54, 8.91, 9.24, 9.49, 9.49, 8.72, 8.17, 7.76, 6.82, 6.82, 6.82, 6.82, 5.72, 5.72, 5.72, 5.72, 6.01, 6.01, 6.01, 6.32, 6.32, 6.32, 6.32, 6.32, 6.92, 6.92, 6.92, 7.51, 7.51, 7.51, 7.51, 7.51, 7.73, 8.08, 8.08, 8.08, 7.73, 8.0, 8.0, 8.0, 8.0, 8.0, 8.0, 8.27, 8.27, 8.27, 7.9, 7.9, 8.15, 8.15, 8.15, 8.15, 8.15, 8.28, 8.28, 8.0, 8.0, 7.48, 7.71, 7.71, 7.81, 8.0, 7.58, 7.69, 7.26, 6.97, 5.7, 5.24, 5.09, 5.09, 5.09, 5.09, 5.09, 5.09, 5.09, 4.8, 4.89, 8.05, 8.05, 7.6, 7.15, 6.26, 6.71, 7.15, 7.6, 8.05, 8.49, 8.49, 8.94, 8.94, 9.35, 9.8, 10.73, 11.62, 11.62, 10.73, 10.62, 9.4, 9.33, 8.67, 8.63, 8.63, 8.95, 8.72, 8.17, 7.82, 7.2, 6.79, 6.79, 6.79, 5.72, 5.72, 5.72, 5.72, 5.71, 5.71, 5.71, 6.01, 6.32, 6.32, 6.32, 6.32, 6.92, 6.92, 6.92, 7.25, 7.51, 7.51, 7.51, 7.51, 7.51, 7.73, 7.73, 7.73, 7.73, 8.0, 7.8, 7.8, 7.44, 7.44, 7.9, 7.9, 7.9, 7.9, 7.9, 8.15, 8.15, 8.15, 8.15, 8.15, 8.15, 8.15, 8.15, 8.0, 8.0, 7.48, 7.48, 7.71, 7.81, 7.81, 7.51, 7.51, 7.51, 7.26, 6.47, 5.57, 5.51, 5.09, 5.09, 5.09, 5.09, 5.09, 5.09, 4.6, 4.8, 7.1, 7.15, 7.15, 6.71, 6.64, 6.88, 6.94, 7.6, 8.05, 8.05, 8.05, 8.49, 8.49, 8.9, 9.83, 10.28, 10.73, 11.18, 11.62, 10.05, 9.08, 7.69, 7.68, 7.68, 7.68, 7.69, 8.18, 8.21, 7.82, 7.44, 7.15, 7.15, 7.15, 5.72, 5.72, 5.72, 5.71, 5.71, 5.71, 5.71, 5.71, 6.32, 6.32, 6.32, 6.32, 6.64, 6.92, 6.92, 6.92, 7.51, 7.51, 7.51, 7.51, 7.51, 7.73, 7.73, 7.73, 8.0, 7.8, 7.8, 7.44, 7.44, 7.44, 7.72, 7.9, 7.9, 7.9, 8.15, 8.15, 8.15, 8.15, 8.15, 8.15, 8.15, 8.15, 8.15, 7.76, 8.0, 7.48, 7.48, 7.48, 7.81, 7.81, 7.31, 7.51, 7.09, 7.21, 6.79, 6.47, 5.99, 5.57, 5.51, 5.09, 4.9, 5.09, 5.09, 4.6, 4.6, 7.1, 7.15, 7.1, 7.15, 7.1, 6.88, 6.57, 7.12, 8.0, 8.05, 8.05, 8.05, 8.49, 8.49, 9.39, 9.83, 10.28, 10.73, 11.59, 11.05, 7.06, 6.24, 6.24, 6.95, 6.95, 6.64, 7.02, 7.06, 7.15, 7.2, 6.82, 6.82, 6.82, 5.72, 5.72, 5.72, 5.71, 5.71, 5.71, 5.71, 5.71, 6.32, 6.32, 6.32, 6.32, 6.64, 6.92, 6.92, 6.92, 7.25, 7.51, 7.51, 7.51, 7.51, 7.51, 7.73, 8.0, 7.8, 7.44, 7.44, 7.44, 7.44, 7.44, 7.72, 7.72, 7.9, 7.9, 8.15, 8.15, 8.15, 8.15, 8.15, 8.15, 8.15, 8.15, 7.76, 7.76, 7.61, 7.48, 7.48, 7.48, 7.6, 7.81, 7.31, 7.31, 6.8, 7.01, 6.79, 6.79, 6.3, 5.81, 5.4, 5.4, 5.31, 5.31, 5.09, 5.09, 4.6, 4.34, 7.15, 7.15, 7.15, 6.71, 6.64, 6.88, 6.57, 6.6, 7.54, 8.05, 8.05, 8.05, 8.49, 9.39, 9.83, 10.28, 10.7, 12.04, 8.91, 6.7, 5.3, 4.6, 5.13, 6.24, 5.94, 5.49, 5.89, 6.01, 5.84, 5.95, 5.95, 5.95, 5.72, 5.72, 5.72, 5.71, 5.71, 5.71, 5.71, 6.01, 6.32, 6.32, 6.32, 6.32, 6.34, 6.64, 6.92, 6.92, 6.92, 7.25, 7.51, 7.51, 7.51, 7.51, 7.8, 7.8, 7.44, 7.44, 7.44, 7.44, 7.44, 7.72, 7.72, 7.72, 7.72, 7.9, 7.9, 8.15, 8.15, 8.15, 8.15, 8.15, 8.15, 8.15, 7.76, 7.76, 7.61, 7.23, 7.48, 7.48, 7.48, 7.71, 7.71, 7.31, 6.8, 7.01, 6.6, 6.6, 6.3, 6.3, 5.81, 5.81, 5.4, 5.31, 5.31, 4.9, 4.6, 4.19, 7.37, 7.15, 7.15, 7.54, 7.15, 7.15, 6.64, 6.45, 6.99, 7.37, 7.54, 8.05, 8.49, 8.94, 9.39, 10.25, 10.7, 11.95, 9.58, 7.89, 5.77, 4.03, 3.91, 4.83, 4.56, 4.03, 3.55, 4.19, 4.11, 5.4, 5.4, 5.4, 5.72, 5.72, 5.72, 5.44, 5.71, 5.71, 5.71, 6.01, 6.32, 6.32, 6.04, 6.04, 6.34, 6.34, 6.64, 6.92, 6.92, 6.92, 7.25, 7.51, 7.51, 7.51, 7.8, 7.44, 7.44, 7.44, 7.44, 7.44, 7.44, 7.44, 7.72, 7.72, 7.72, 7.9, 7.9, 7.9, 7.9, 7.9, 7.9, 7.9, 8.15, 8.15, 7.76, 7.61, 7.61, 7.23, 7.23, 7.48, 7.48, 7.48, 7.71, 7.31, 6.8, 6.8, 6.6, 6.6, 6.51, 6.1, 6.1, 6.1, 5.6, 5.6, 5.4, 5.31, 4.6, 4.6, 4.8, 4.89, 8.05, 8.0, 8.05, 7.6, 7.15, 6.71, 6.71, 6.45, 7.1, 8.0, 8.45, 8.9, 9.24, 9.79, 11.96, 11.95, 9.83, 8.14, 6.44, 3.9, 2.35, 3.2, 3.33, 3.22, 3.22, 3.48, 3.72, 3.6, 3.6, 3.6, 5.72, 5.72, 5.72, 5.72, 5.71, 5.71, 6.01, 6.01, 6.32, 6.32, 6.04, 6.04, 6.34, 6.34, 6.34, 6.92, 6.92, 6.92, 6.92, 6.92, 7.17, 7.17, 7.44, 7.44, 7.44, 7.44, 7.44, 7.44, 7.44, 7.44, 7.44, 7.72, 7.72, 7.72, 7.9, 7.9, 7.9, 7.9, 7.9, 7.9, 7.9, 8.15, 7.76, 7.61, 7.61, 7.23, 7.23, 7.23, 7.48, 7.48, 7.08, 7.31, 6.8, 6.8, 6.28, 6.51, 6.51, 6.51, 6.1, 6.1, 6.1, 5.6, 5.6, 5.2, 4.9, 4.66, 4.66, 5.24, 8.05, 8.05, 8.05, 8.05, 7.6, 7.54, 7.54, 7.15, 7.1, 8.0, 8.45, 8.77, 8.77, 9.24, 11.59, 12.04, 10.41, 8.21, 6.73, 4.68, 3.2, 3.2, 3.33, 2.95, 3.72, 2.53, 1.6, 0.0, 0.0, 0.0, 5.72, 5.72, 5.72, 5.72, 6.01, 6.01, 6.01, 6.01, 6.32, 6.32, 6.04, 6.04, 6.04, 6.34, 6.34, 6.64, 6.92, 6.92, 6.92, 6.92, 6.92, 7.17, 7.44, 7.44, 7.44, 7.44, 7.44, 7.44, 7.44, 7.44, 7.44, 7.44, 7.72, 7.72, 7.9, 7.9, 7.9, 7.9, 7.9, 7.72, 7.72, 7.35, 7.61, 7.61, 7.61, 7.23, 7.23, 7.07, 6.95, 7.08, 7.08, 6.95, 6.8, 6.67, 6.28, 6.28, 6.28, 6.28, 6.51, 6.51, 6.1, 6.0, 5.6, 5.6, 5.08, 4.9, 5.09, 4.66, 5.7, 8.45, 8.49, 8.05, 7.6, 7.6, 7.6, 7.6, 7.6, 8.05, 8.45, 8.45, 8.9, 9.79, 11.18, 12.07, 11.14, 8.17, 5.69, 4.26, 3.09, 3.09, 3.11, 2.68, 1.98, 1.27, 0.0, 0.0, 0.0, 0.0, 5.72, 5.72, 5.72, 5.72, 5.72, 6.01, 6.01, 6.01, 6.32, 6.32, 6.04, 6.04, 6.04, 6.04, 6.34, 6.64, 6.64, 6.92, 6.92, 6.92, 6.92, 6.92, 7.44, 7.44, 7.44, 7.44, 7.44, 7.44, 7.44, 7.44, 7.44, 7.44, 7.44, 7.44, 7.72, 7.9, 7.9, 7.9, 7.72, 7.72, 7.35, 7.35, 7.35, 7.61, 7.23, 7.23, 7.07, 7.07, 6.95, 6.95, 6.95, 6.95, 6.8, 6.67, 6.28, 6.28, 6.28, 6.28, 6.28, 6.28, 6.28, 5.75, 5.75, 5.6, 5.6, 5.4, 5.31, 5.09, 5.57, 7.85, 8.44, 8.05, 7.6, 7.15, 7.6, 7.55, 8.0, 8.0, 8.45, 8.45, 8.9, 9.39, 10.28, 11.62, 11.62, 8.77, 4.11, 2.6, 2.47, 2.47, 1.99, 2.0, 1.08, 1.05, 0.0, 0.0, 0.0, 0.0, 5.72, 5.72, 5.72, 5.72, 5.72, 5.72, 6.01, 6.01, 6.01, 6.32, 6.32, 6.32, 6.04, 6.04, 6.32, 6.32, 6.64, 6.92, 6.92, 6.92, 6.92, 6.92, 7.17, 7.44, 7.44, 7.44, 7.44, 7.44, 7.44, 7.44, 7.44, 7.44, 7.44, 7.44, 7.44, 7.44, 7.72, 7.72, 7.72, 7.35, 7.35, 7.35, 7.35, 7.23, 7.23, 7.23, 7.07, 6.7, 6.95, 6.95, 6.95, 6.95, 6.56, 6.41, 6.28, 6.28, 6.28, 6.28, 6.28, 6.28, 6.28, 5.75, 5.75, 5.37, 5.47, 5.47, 5.4, 5.4, 5.81, 7.63, 8.0, 8.05, 7.6, 7.15, 7.6, 8.05, 8.0, 8.0, 8.29, 8.45, 8.94, 9.83, 10.28, 11.62, 12.52, 10.25, 5.37, 0.98, 0.0, 0.88, 0.88, 0.96, 1.7, 1.03, 0.0, 0.0, 0.0, 0.0, 5.72, 5.72, 5.72, 5.72, 5.72, 5.72, 6.01, 6.01, 6.01, 6.01, 6.01, 6.01, 6.01, 6.32, 6.32, 6.32, 6.32, 6.64, 6.92, 6.92, 6.92, 6.92, 6.92, 7.44, 7.44, 7.44, 7.44, 7.44, 7.44, 7.44, 7.44, 7.44, 7.44, 7.44, 7.44, 7.44, 7.44, 7.72, 7.35, 7.35, 7.35, 7.35, 7.23, 7.07, 7.07, 7.07, 7.07, 6.7, 6.95, 6.95, 6.95, 6.95, 6.56, 6.41, 6.41, 6.41, 6.03, 6.03, 6.03, 6.03, 6.28, 5.75, 5.75, 5.37, 5.21, 5.47, 5.47, 5.81, 5.6, 6.3, 7.06, 8.94, 8.0, 7.55, 7.6, 8.05, 8.05, 8.49, 8.49, 8.49, 8.94, 9.83, 10.69, 11.59, 12.49, 11.95, 8.77, 3.58, 0.0, 0.0, 0.88, 1.6, 2.35, 2.99, 1.96, 2.16, 2.16, 2.16, 5.72, 5.72, 5.72, 5.72, 5.72, 5.72, 6.01, 6.01, 6.01, 6.01, 6.01, 6.01, 6.01, 6.01, 6.32, 6.32, 6.32, 6.32, 6.32, 6.92, 6.92, 6.92, 6.92, 7.21, 7.44, 7.44, 7.44, 7.44, 7.44, 7.44, 7.44, 7.44, 7.44, 7.44, 7.44, 7.44, 7.44, 7.35, 7.35, 7.35, 6.79, 6.79, 7.07, 7.07, 7.07, 7.07, 6.7, 6.7, 6.7, 6.7, 6.95, 6.95, 6.95, 6.41, 6.41, 6.41, 6.41, 6.03, 6.03, 5.86, 5.86, 5.49, 5.75, 5.21, 5.21, 4.84, 5.08, 5.6, 5.6, 6.1, 6.94, 8.9, 8.0, 8.41, 7.1, 7.6, 8.05, 8.49, 8.49, 8.9, 9.35, 9.8, 10.69, 11.51, 12.94, 12.94, 11.51, 8.56, 4.19, 0.81, 0.78, 1.55, 3.27, 3.69, 4.74, 5.59, 5.59, 5.59, 5.72, 5.72, 5.72, 5.72, 5.72, 5.72, 6.01, 6.01, 6.01, 6.01, 6.01, 6.01, 6.01, 6.01, 6.01, 6.32, 6.32, 6.32, 6.32, 6.32, 6.92, 6.92, 6.92, 6.92, 7.44, 7.44, 7.44, 7.44, 7.44, 7.44, 7.21, 7.21, 7.21, 7.44, 7.44, 7.09, 6.87, 7.15, 7.15, 6.79, 6.79, 7.07, 7.07, 7.07, 7.07, 7.07, 6.7, 6.7, 6.7, 6.7, 6.7, 6.7, 6.7, 6.51, 6.15, 6.15, 6.15, 5.93, 5.59, 5.86, 5.86, 5.49, 5.75, 5.21, 5.21, 4.84, 4.84, 5.47, 5.6, 6.1, 6.3, 6.61, 6.26, 8.49, 7.15, 7.6, 8.05, 8.44, 8.44, 8.9, 9.24, 9.68, 10.58, 11.05, 12.41, 12.94, 12.41, 11.36, 9.24, 6.18, 3.97, 3.6, 4.83, 6.06, 7.21, 8.49, 8.49, 8.49, 5.72, 5.72, 5.72, 5.72, 5.72, 5.72, 6.01, 6.01, 6.01, 6.01, 6.01, 6.01, 6.01, 6.01, 6.01, 6.32, 6.32, 6.32, 6.32, 6.32, 6.92, 6.92, 6.92, 6.92, 7.44, 7.44, 7.44, 7.44, 7.44, 7.44, 7.21, 7.21, 7.21, 7.44, 7.44, 7.09, 6.87, 7.15, 7.15, 6.79, 6.79, 7.07, 7.07, 7.07, 7.07, 7.07, 6.7, 6.7, 6.7, 6.7, 6.7, 6.7, 6.7, 6.51, 6.15, 6.15, 6.15, 5.93, 5.59, 5.86, 5.86, 5.49, 5.75, 5.21, 5.21, 4.84, 4.84, 5.47, 5.6, 6.1, 6.3, 6.61, 6.26, 8.49, 7.15, 7.6, 8.05, 8.44, 8.44, 8.9, 9.24, 9.68, 10.58, 11.05, 11.95, 12.94, 13.38, 12.41, 11.51, 10.41, 9.24, 8.17, 8.72, 9.24, 9.83, 10.14, 10.14, 10.14]}, {"header": {"dx": 0.06612293990616946, "dy": 0.0552356325346848, "nx": 98, "ny": 59, "la1": 35.046912555036876, "la2": 31.78801023549047, "lo1": -121.43107172385933, "lo2": -114.95102361305473, "refTime": "2026040620", "parameterCategory": 1, "parameterNumber": 3}, "data": [-6.64, -6.34, -6.34, -6.35, -6.35, -6.35, -6.35, -6.08, -5.72, -5.72, -5.08, -4.0, -3.51, -2.47, -1.75, -0.85, -0.94, -1.0, -1.4, -1.58, -3.4, -5.06, -5.94, -5.73, -5.81, -5.81, -5.51, -5.6, -5.6, -5.2, -5.4, -4.98, -5.26, -5.36, -5.36, -4.98, -4.98, -4.98, -4.54, -4.43, -4.29, -4.87, -5.86, -6.58, -6.76, -6.7, -7.38, -7.12, -6.7, -6.0, -4.92, -3.49, -2.44, -0.89, 0.0, 0.0, 0.89, 0.95, 1.84, 1.84, 1.96, 1.84, 1.84, 1.84, 1.84, 1.01, 0.89, 0.94, 0.0, 0.0, 0.0, 0.0, 0.0, 0.0, 0.0, 0.0, 0.0, 0.0, -0.95, -0.96, -2.16, -1.99, -2.4, -2.48, -2.21, -1.0, 0.0, 0.0, 0.0, -0.96, -0.96, 0.0, 0.0, 0.96, 1.84, 1.98, 2.8, 3.79, -6.92, -6.34, -6.34, -6.34, -6.35, -6.35, -6.35, -6.35, -6.0, -5.72, -5.09, -4.92, -4.4, -3.88, -2.39, -2.46, -1.75, -1.47, -1.4, -2.82, -2.99, -5.06, -6.94, -7.15, -5.81, -5.81, -5.73, -5.94, -5.94, -5.94, -5.94, -6.17, -6.17, -5.81, -6.26, -5.94, -6.45, -6.16, -6.0, -5.58, -5.84, -6.64, -7.27, -7.9, -8.12, -8.01, -8.01, -7.36, -6.7, -5.9, -5.06, -3.49, -2.57, -1.58, 0.0, 0.0, 0.84, 0.94, 1.84, 1.73, 0.89, 0.95, 0.95, 0.95, 0.95, 0.89, 0.0, 0.0, 0.0, 0.0, 0.0, 0.0, 0.0, 0.0, 0.0, -0.89, -0.89, 0.0, -0.95, -0.96, -2.16, -1.99, -2.4, -2.48, -2.21, -1.0, 0.0, 0.0, 0.0, -0.96, -0.96, 0.0, 0.0, 0.96, 1.84, 1.98, 2.8, 3.79, -6.92, -6.64, -6.34, -6.34, -6.34, -6.35, -6.35, -6.35, -6.06, -5.72, -5.45, -4.71, -5.29, -4.2, -3.32, -2.57, -2.57, -2.57, -2.98, -2.83, -2.82, -4.56, -6.0, -7.15, -7.6, -6.26, -6.17, -6.17, -6.02, -6.45, -6.64, -6.64, -6.71, -7.6, -6.64, -7.89, -6.88, -6.94, -7.12, -7.2, -6.7, -8.03, -8.64, -9.26, -9.26, -8.12, -6.7, -6.04, -5.63, -5.63, -5.21, -4.34, -2.83, -1.84, -0.76, 0.0, 0.89, 0.89, 0.84, 0.94, 0.94, 0.89, 0.83, 0.83, 0.0, 0.0, 0.0, 0.0, 0.0, 0.0, 0.0, 0.0, 0.0, -0.94, -0.94, -1.73, -1.84, -1.01, -1.72, -1.98, -2.99, -2.99, -3.22, -3.16, -2.6, -2.4, -1.74, -2.2, -1.98, -1.84, -1.84, -0.96, 0.0, 0.0, 1.03, 1.98, 1.98, 3.48, -6.92, -6.92, -6.64, -6.34, -6.34, -6.06, -6.35, -6.35, -6.35, -5.72, -5.72, -5.72, -5.29, -3.88, -4.2, -4.2, -4.4, -3.65, -3.49, -2.83, -2.54, -2.69, -4.56, -5.94, -6.26, -7.6, -6.64, -6.2, -6.2, -6.71, -7.15, -7.15, -7.15, -8.05, -7.89, -7.89, -8.38, -8.48, -8.56, -8.95, -9.43, -9.34, -9.0, -8.31, -7.59, -6.42, -5.21, -4.34, -3.6, -3.6, -3.69, -3.45, -2.54, -1.75, 0.0, 0.0, 0.84, 0.89, 0.89, 0.84, 0.84, 0.94, 0.89, 0.89, 0.0, 0.0, 0.0, 0.0, 0.0, 0.0, -0.94, -0.89, -1.75, -2.4, -2.4, -2.67, -2.67, -2.82, -3.0, -3.22, -3.35, -2.99, -3.79, -3.93, -3.6, -3.35, -3.16, -3.63, -3.55, -3.77, -2.82, -1.98, -1.03, 0.0, 0.0, 0.89, 1.98, 2.73, -6.92, -6.92, -6.92, -6.64, -6.34, -6.34, -6.35, -6.35, -6.35, -6.06, -6.04, -5.72, -5.9, -4.4, -4.4, -5.06, -4.5, -5.06, -4.4, -4.2, -4.2, -4.0, -4.37, -6.44, -6.64, -7.6, -8.05, -8.05, -8.05, -7.15, -7.15, -7.6, -7.55, -7.54, -8.38, -8.38, -8.82, -9.46, -10.18, -10.85, -10.0, -8.38, -7.27, -6.04, -5.46, -4.83, -4.2, -2.57, -1.84, -1.75, -1.75, -1.75, -0.89, 0.0, 0.0, 0.89, 0.89, 0.89, 0.89, 0.0, 0.0, 0.0, 0.94, 0.94, 0.94, 0.0, 0.0, 0.0, 0.0, 0.0, -0.94, -1.84, -3.09, -4.26, -5.24, -4.95, -4.68, -3.55, -3.91, -3.35, -3.35, -4.11, -4.54, -4.6, -4.57, -3.93, -4.11, -4.58, -4.42, -4.42, -3.97, -3.0, -2.64, -1.84, 0.0, 0.0, 1.03, 2.48, -6.92, -6.92, -6.92, -6.92, -6.64, -6.34, -6.34, -6.35, -6.35, -6.34, -6.04, -6.32, -5.9, -4.6, -4.6, -4.4, -5.06, -5.7, -5.9, -5.9, -5.46, -5.1, -5.59, -7.28, -8.38, -8.49, -8.49, -8.05, -8.05, -8.49, -7.54, -7.37, -7.53, -7.2, -6.16, -6.51, -7.37, -8.06, -9.97, -10.89, -9.66, -8.54, -6.73, -5.76, -5.46, -4.4, -4.2, -3.49, -1.75, -0.89, 0.0, 0.0, 0.0, 0.0, 0.85, 0.85, 0.85, 0.85, 0.0, 0.0, 0.0, 0.94, 0.94, 0.84, 0.89, 0.0, 0.0, 0.0, 0.0, 0.0, -0.94, -0.89, -2.67, -3.77, -5.37, -6.55, -6.18, -5.06, -3.91, -4.11, -4.65, -4.89, -5.21, -5.94, -5.94, -6.0, -5.06, -4.58, -3.72, -3.91, -3.91, -3.72, -3.0, -1.98, -1.03, 0.0, 1.05, 3.72, -6.92, -6.92, -6.92, -6.92, -6.92, -6.64, -6.34, -6.65, -6.35, -6.34, -6.32, -6.01, -5.9, -5.29, -5.0, -4.25, -5.14, -5.75, -6.15, -6.05, -5.52, -5.29, -3.63, -3.77, -5.06, -5.94, -6.26, -6.26, -7.15, -7.15, -8.49, -7.37, -6.82, -6.45, -5.77, -5.75, -4.98, -5.51, -8.49, -8.94, -9.29, -7.47, -6.44, -6.01, -4.37, -3.6, -3.63, -2.57, -2.57, -1.22, 0.0, 0.0, 0.0, 0.81, 0.81, 0.89, 0.89, 0.0, 0.0, 0.0, 0.0, 0.84, 0.89, 0.89, 0.89, 0.94, 0.0, 0.0, 0.0, 0.0, 0.0, 0.0, -0.83, -1.03, -1.99, -4.65, -5.6, -5.6, -4.89, -4.98, -4.98, -5.6, -5.6, -6.02, -6.45, -6.4, -5.84, -3.72, -2.99, -3.22, -3.48, -2.53, -1.05, -0.96, -0.96, 0.0, 1.41, 4.47, -7.44, -7.21, -6.92, -6.92, -6.92, -6.92, -6.95, -6.95, -6.95, -6.95, -6.92, -6.87, -7.27, -6.59, -6.16, -5.52, -5.3, -5.86, -5.41, -5.76, -4.92, -3.69, -2.41, -0.85, 0.0, 0.0, 0.0, 1.84, 0.0, -6.51, -8.49, -9.29, -8.4, -7.33, -5.06, -3.48, 2.24, 3.72, -0.0, -5.21, -4.92, 0.0, 0.0, 1.98, 1.63, 1.49, 0.0, 0.0, -0.94, 0.0, 0.0, 0.0, 0.0, 0.85, 0.85, 0.81, 0.0, 0.0, 0.0, 0.0, 0.0, 0.0, 0.0, 0.0, 0.0, 0.94, 0.0, 0.0, 0.0, 0.0, 0.0, 0.0, 0.0, 1.03, 1.05, 0.0, -2.84, -5.26, -5.4, -4.98, -4.15, -4.8, -4.4, -4.8, -6.28, -6.64, -6.08, -3.97, -2.16, -2.2, -2.23, 0.0, 0.0, 0.0, 0.0, 0.0, 2.53, 4.02, -7.44, -7.44, -7.17, -7.17, -7.51, -7.51, -7.23, -7.23, -7.23, -7.23, -7.51, -8.0, -10.01, -9.08, -8.35, -8.35, -7.78, -7.36, -6.57, -6.59, -5.32, -4.05, -2.71, -0.93, 0.0, 0.0, 2.83, 4.37, 3.15, -1.73, -5.58, -4.8, 0.0, 0.0, 0.0, 1.19, 6.26, 7.45, 5.94, 5.09, 6.26, 6.51, 6.4, 6.08, 5.37, 4.58, 3.15, 2.69, 0.89, 0.89, 0.0, 0.89, 0.85, 0.0, 0.0, 0.0, 0.0, 0.0, 0.0, 0.0, -0.89, -0.89, 0.0, 0.0, 0.0, 0.0, 0.0, 0.0, 0.0, 0.0, 0.0, 0.0, 0.0, 0.0, 0.88, 1.99, 0.0, -2.53, -4.34, -4.47, -4.47, -3.95, -3.9, -4.57, -5.43, -6.07, -6.08, -4.87, -3.11, -1.84, 0.0, 1.13, 0.98, 0.0, 0.0, 0.0, 2.68, 3.2, -7.44, -7.44, -7.17, -7.51, -7.51, -7.51, -7.23, -7.55, -7.55, -7.55, -8.08, -8.73, -7.86, -7.55, -9.08, -9.81, -10.12, -9.76, -9.16, -8.73, -7.9, -7.56, -5.86, -4.14, 0.0, 2.82, 4.14, 4.83, 2.99, 0.0, 2.2, 6.26, 7.15, 6.8, 6.44, 5.06, 6.51, 6.26, 7.45, 7.47, 6.21, 6.21, 5.58, 4.89, 4.43, 3.72, 3.55, 2.67, 1.75, 1.75, 0.89, 0.0, 0.0, 0.0, -0.89, -0.89, -1.84, -1.75, -2.57, -2.69, -2.69, -1.84, 0.0, 0.89, 1.01, 0.89, 0.0, 0.0, -0.77, -0.89, -1.67, -1.49, -1.63, -0.82, 0.0, 0.0, 0.96, 0.0, -1.2, -3.13, -3.58, -4.02, -4.02, -4.57, -4.84, -5.46, -5.77, -4.56, -4.03, -3.2, -0.88, 0.87, 1.41, 0.0, 0.0, 0.0, 3.13, 3.6, -7.44, -7.44, -7.17, -7.51, -7.51, -7.51, -7.23, -7.55, -7.55, -7.55, -7.81, -8.78, -8.53, -7.33, -7.78, -8.22, -8.35, -4.94, -4.11, -3.49, -6.18, -5.82, -3.97, -1.08, 4.4, 5.94, 5.21, 5.21, 3.47, 3.0, 5.58, 6.61, 6.17, 5.81, 4.98, 5.72, 6.08, 7.28, 6.6, 6.11, 5.69, 5.37, 4.58, 4.74, 4.74, 3.91, 3.0, 1.96, 0.94, 0.0, 0.0, 0.0, -0.94, -2.69, -3.32, -4.2, -4.4, -4.2, -4.34, -3.8, -0.95, 1.14, 3.91, 3.72, 2.82, 0.89, 0.0, -1.68, -2.7, -3.49, -3.32, -3.27, -3.2, -2.47, -1.7, -0.88, 0.0, 0.0, 0.0, 0.0, -3.13, -4.47, -4.92, -4.57, -4.8, -5.46, -5.37, -6.01, -5.94, -4.71, -2.47, 1.27, 2.84, 1.05, 0.0, 0.0, 3.2, 3.58, -7.17, -7.17, -7.17, -7.51, -7.51, -7.23, -7.23, -7.55, -7.55, -7.55, -7.86, -8.19, -8.53, -7.96, -6.25, -4.68, -3.27, -2.21, -1.69, -1.12, -0.56, 0.0, 0.54, 2.39, 4.29, 5.21, 5.51, 1.49, 3.72, 4.11, 4.74, 5.95, 6.4, 4.89, 4.89, 5.21, 5.15, 5.37, 5.69, 5.53, 4.5, 4.68, 4.29, 6.0, 5.6, 4.98, 4.74, 1.63, 0.0, 0.0, -1.01, -1.84, -2.54, -2.69, -4.34, -5.21, -5.21, -6.18, -6.45, -1.41, 4.98, 6.57, 6.6, 4.58, 2.99, 0.89, 0.0, -2.59, -5.29, -5.9, -5.38, -5.21, -4.03, -3.72, -2.99, -3.22, -2.48, -1.6, 0.0, 0.0, -1.27, -4.47, -5.36, -5.29, -5.34, -6.07, -6.7, -7.02, -6.64, -5.21, -2.6, 0.0, 1.98, 0.96, 0.0, 0.0, 1.8, 3.2, -7.17, -7.17, -7.17, -7.51, -7.51, -7.23, -7.23, -7.55, -7.55, -7.27, -7.59, -7.9, -8.24, -8.24, -7.55, -5.42, -3.5, -1.75, -0.57, 0.0, 0.0, 1.12, 1.75, 1.72, 1.73, 1.65, 1.58, 1.2, 1.24, 1.24, 2.76, 4.58, 5.49, 4.74, 5.15, 5.49, 4.74, 5.37, 4.42, 3.6, 3.6, 3.77, 3.91, 4.98, 6.07, 6.07, 5.58, 3.72, 1.63, 0.0, 0.0, -0.83, -0.83, 0.0, 0.0, 0.0, -1.49, -6.44, -5.81, 4.29, 8.49, 8.29, 7.2, 5.49, 3.97, 2.83, 0.77, -0.85, -5.21, -7.68, -8.18, -7.15, -6.55, -5.84, -5.24, -4.65, -3.72, -3.2, -2.4, -1.13, -0.98, -3.48, -4.38, -5.73, -6.45, -7.2, -7.81, -7.33, -6.68, -5.3, -3.22, -0.87, 0.0, 0.0, -0.89, 0.0, 0.0, 1.6, -7.17, -7.17, -7.17, -7.25, -6.95, -6.95, -7.23, -7.55, -7.27, -7.59, -7.59, -7.9, -7.93, -7.96, -7.57, -6.64, -5.38, -3.47, -2.28, -1.15, -0.58, 0.0, 0.58, 1.13, 1.12, 1.18, 1.1, 1.19, 1.13, 0.61, 0.59, 1.84, 4.29, 4.43, 4.74, 5.49, 4.74, 4.42, 3.4, 1.84, 1.84, 3.0, 4.43, 5.51, 5.81, 5.64, 4.98, 4.74, 4.74, 5.06, 3.2, 1.63, 4.43, 6.51, 6.0, 4.54, 3.4, -1.98, -3.48, 6.21, 8.9, 9.29, 8.48, 7.47, 5.95, 4.58, 2.67, 1.65, -1.32, -6.6, -8.56, -8.06, -7.53, -7.2, -6.57, -5.4, -4.77, -4.02, -4.02, -3.35, -2.73, -2.2, -3.58, -4.57, -6.28, -7.2, -7.82, -7.42, -6.7, -5.77, -4.01, -2.95, -2.68, -1.84, -1.52, 0.0, 0.0, 1.41, -7.17, -7.17, -7.17, -7.51, -6.95, -7.23, -7.23, -7.55, -7.27, -7.59, -7.3, -7.6, -7.93, -7.95, -7.59, -7.13, -5.92, -4.66, -3.47, -2.92, -1.72, -1.15, 0.0, 0.0, 0.58, 1.15, 1.14, 1.1, 1.12, 0.58, 0.0, 0.0, 1.4, 4.29, 4.29, 5.37, 5.31, 4.03, 2.33, 0.89, 0.95, 1.63, 3.79, 5.36, 5.36, 5.81, 5.64, 5.6, 6.0, 5.58, 5.06, 5.58, 6.51, 6.51, 6.07, 5.21, 3.0, 0.96, 2.68, 8.05, 8.05, 7.89, 7.06, 7.06, 7.2, 6.44, 4.83, 4.37, 3.15, -3.72, -8.05, -8.49, -7.15, -5.81, -4.92, -4.47, -4.47, -4.47, -4.47, -4.34, -4.4, -4.29, -3.48, -4.19, -4.11, -5.49, -6.57, -7.37, -6.51, -6.21, -5.49, -4.46, -4.11, -3.22, -2.64, 0.0, 0.0, 0.0, -7.17, -7.17, -7.17, -7.51, -7.23, -7.23, -7.55, -7.27, -7.27, -7.59, -7.3, -7.6, -7.61, -7.61, -7.6, -6.92, -6.43, -5.21, -4.52, -3.47, -2.28, -1.72, -0.58, 0.0, 0.57, 1.17, 1.09, 1.16, 0.56, 0.0, 0.0, 0.0, 0.0, 1.32, 3.2, 4.29, 5.24, 3.6, 1.32, 0.0, 1.05, 3.93, 5.51, 5.64, 5.81, 5.81, 5.81, 5.64, 5.6, 5.6, 5.6, 6.0, 6.0, 5.21, 4.84, 3.22, 1.63, 3.2, 6.01, 8.0, 6.57, 6.0, 6.0, 5.36, 5.06, 5.37, 4.74, 4.6, 2.83, -2.12, -6.88, -5.15, -2.2, -0.0, 2.84, 3.13, -2.68, -4.47, -4.92, -5.36, -5.7, -5.6, -4.89, -4.89, -4.11, -2.2, -3.79, -5.81, -6.71, -6.45, -6.21, -5.43, -4.43, -3.11, -2.47, -1.6, 0.0, 0.0, -7.17, -7.17, -7.51, -7.51, -7.23, -7.23, -7.55, -7.27, -7.27, -7.59, -7.3, -7.6, -7.61, -7.33, -6.96, -6.94, -6.25, -5.73, -4.55, -4.03, -2.94, -1.79, -1.16, 0.0, 1.13, 1.71, 1.16, 0.56, 0.0, 0.0, -0.56, -1.16, -1.2, 0.0, 1.84, 3.9, 4.58, 4.56, 3.0, 3.22, 5.51, 5.73, 6.58, 5.73, 6.51, 6.51, 6.07, 6.07, 4.84, 4.84, 4.84, 5.21, 5.21, 5.21, 3.22, 2.8, 3.2, 3.91, 5.37, 5.69, 5.72, 4.43, 3.22, 3.22, 2.8, 2.99, 3.4, 2.99, 1.67, -2.6, -3.4, -0.0, 4.11, 5.94, 6.26, 5.94, 3.72, -3.13, -5.81, -6.26, -6.64, -6.88, -6.57, -5.2, -4.29, -2.84, 0.0, -5.81, -6.2, -6.57, -5.75, -6.28, -5.46, -4.74, -3.72, -3.22, -1.83, -1.83, -7.17, -7.17, -7.51, -7.51, -7.23, -7.23, -7.55, -7.27, -7.27, -7.3, -7.3, -7.6, -7.32, -7.33, -6.97, -6.29, -6.5, -5.77, -4.58, -3.53, -2.94, -2.28, -1.73, 0.0, 0.57, 0.57, 0.0, -0.57, -1.1, -2.17, -2.33, -2.23, -2.29, -1.04, 0.0, 1.72, 2.99, 3.47, 4.43, 5.6, 7.01, 7.45, 6.51, 6.94, 6.64, 6.52, 5.72, 5.36, 5.21, 4.84, 4.84, 4.84, 4.84, 3.22, 3.22, 2.8, 3.0, 4.29, 4.56, 4.29, 3.2, 3.0, 1.52, 1.41, 0.0, 0.88, 1.03, 0.0, 0.0, 0.0, 5.36, 5.36, 6.36, 6.21, 6.18, 5.69, 4.42, 1.05, -4.77, -7.15, -7.15, -6.64, -6.64, -5.09, -4.77, -4.02, -3.82, -4.47, -5.73, -5.94, -6.45, -6.88, -6.28, -5.46, -4.74, -4.11, -3.16, -3.16, -7.51, -7.51, -7.51, -7.51, -7.23, -7.23, -7.55, -7.27, -7.27, -7.3, -7.3, -7.6, -7.32, -6.98, -6.97, -8.05, -6.7, -6.27, -4.68, -3.44, -2.94, -3.58, -4.07, -3.25, -2.45, -2.32, -2.26, -3.51, -3.36, -2.8, -2.8, -2.8, -2.8, -2.32, -1.67, -0.54, 0.0, 0.0, 1.84, 4.74, 4.98, 4.98, 5.21, 4.74, 5.37, 5.31, 5.03, 4.29, 4.43, 5.21, 5.21, 4.84, 4.84, 4.84, 4.43, 3.0, 3.0, 4.29, 3.91, 2.82, 1.4, 1.63, 1.63, 0.0, 0.0, 0.0, 0.0, 0.0, 0.0, 1.28, 4.23, 4.92, 5.0, 4.3, 4.3, 3.51, 2.47, 0.94, -1.03, -5.7, -6.26, -5.7, -5.26, -4.47, -4.92, -4.47, -4.24, -3.39, -4.34, -4.15, -5.51, -7.08, -7.37, -6.28, -5.58, -4.11, -3.93, -3.93, -7.51, -7.51, -7.51, -7.51, -7.23, -7.23, -7.55, -6.97, -6.97, -6.98, -6.98, -6.98, -6.98, -6.98, -7.33, -6.7, -6.31, -5.92, -6.56, -5.48, -5.51, -5.73, -6.25, -7.36, -6.65, -5.86, -4.34, -2.23, -1.61, -1.0, -1.24, -1.61, -2.23, -2.2, -2.18, -1.55, -1.19, -1.19, 0.0, 0.54, 1.07, 1.16, 1.16, 1.7, 2.36, 4.0, 3.8, 3.91, 4.43, 5.21, 5.6, 5.6, 5.6, 5.21, 3.79, 3.91, 4.29, 3.47, 2.82, 1.32, 0.0, 0.0, 0.0, 0.0, 0.0, 0.0, 0.0, 0.0, 0.0, 1.76, 3.29, 3.34, 3.2, 1.59, 0.0, 0.0, 0.0, -0.82, -1.01, -4.4, -4.92, -4.24, -2.84, -2.84, -4.24, -3.9, -3.58, -3.13, -2.97, -2.53, -3.48, -5.26, -6.26, -6.45, -4.84, -3.79, -3.16, -3.16, -7.51, -7.51, -7.51, -7.51, -7.23, -7.23, -6.95, -6.97, -6.97, -6.97, -6.98, -6.98, -6.98, -6.98, -7.33, -6.96, -6.31, -6.33, -6.33, -7.93, -8.06, -5.67, -6.34, -6.7, -6.33, -4.4, -2.1, -0.55, 0.0, 0.0, 0.0, 0.0, -0.57, -1.16, -1.58, -1.57, -1.57, -1.08, -1.07, -0.54, 0.0, 0.0, 0.59, 1.16, 1.7, 4.0, 3.8, 3.91, 5.21, 6.07, 6.07, 6.07, 6.07, 5.6, 6.0, 4.89, 4.29, 3.33, 1.32, 0.0, 0.0, 0.0, 0.0, 0.0, 0.0, 0.0, 0.0, 0.95, 1.75, 2.57, 2.49, 2.37, 0.81, -0.79, -2.39, -3.42, -2.97, -2.59, -0.89, -0.94, -1.19, -0.0, -0.0, -0.98, -2.84, -4.24, -3.82, -2.68, -1.79, -1.2, 0.0, -1.27, -4.34, -4.92, -4.57, -2.68, -1.8, -1.8, -7.51, -7.51, -7.51, -7.51, -7.51, -7.23, -6.95, -6.97, -6.97, -6.97, -6.98, -6.98, -6.98, -6.98, -6.97, -6.97, -6.7, -6.31, -6.94, -7.55, -6.25, -3.91, -3.37, -4.71, -5.08, -3.94, -2.28, -0.56, 0.0, 0.58, 0.5, 0.53, 0.54, 0.0, -0.61, -1.11, -1.23, -1.08, -1.19, -0.54, -0.59, 0.0, 0.59, 1.16, 2.18, 3.22, 4.0, 4.02, 6.07, 6.51, 6.51, 6.07, 6.07, 6.07, 6.0, 5.36, 4.58, 3.77, 1.32, 0.0, -1.84, -1.84, -1.84, -1.05, 0.0, 0.0, 0.0, 0.96, 1.84, 2.99, 2.97, 1.33, 0.0, -2.16, -2.2, -2.47, -3.09, -2.99, -2.17, -0.72, 0.0, 1.84, 0.0, -2.23, -4.4, -4.77, -4.77, -3.82, -3.13, -1.0, 0.0, 0.0, -1.2, -2.68, -1.9, 0.0, 0.0, 0.0, -7.17, -7.17, -7.17, -7.51, -7.51, -7.23, -6.95, -6.97, -6.97, -6.97, -6.98, -6.98, -6.98, -6.98, -6.97, -6.97, -6.96, -6.96, -7.19, -6.9, -5.77, -3.47, -2.87, -2.83, -3.35, -4.0, -3.32, -2.28, -1.11, -0.56, 0.0, 0.0, 0.0, 0.0, 0.0, -0.51, -1.08, -1.19, -1.07, -0.54, -0.54, 0.0, 0.54, 1.55, 2.84, 4.12, 5.37, 6.51, 7.15, 7.15, 7.01, 6.51, 6.07, 6.51, 6.51, 6.0, 4.74, 4.42, 2.99, -0.88, -3.63, -3.63, -3.22, -1.27, 0.0, 1.27, 1.08, 0.96, 0.96, 0.89, 1.32, 0.0, 1.14, 2.4, 3.58, 0.0, -0.79, -1.7, -2.35, -1.58, 0.0, 0.0, 0.0, -1.6, -4.77, -4.98, -4.8, -4.77, -4.92, -5.36, -2.84, -0.99, 2.4, 3.58, 3.58, 3.47, 2.0, 2.0, -7.17, -7.17, -7.17, -7.17, -7.51, -6.95, -6.95, -6.67, -6.97, -6.97, -6.98, -6.98, -6.7, -6.98, -6.71, -6.97, -6.96, -6.96, -6.94, -6.5, -6.0, -4.62, -3.96, -2.93, -2.75, -2.97, -2.86, -2.83, -2.3, -1.65, -1.12, -0.58, -0.57, 0.0, 0.0, 0.0, -0.55, -1.19, -1.07, -1.07, -0.54, 0.0, 0.0, 1.19, 2.2, 3.48, 6.4, 7.01, 7.5, 7.5, 7.5, 7.01, 6.71, 6.58, 6.51, 6.0, 4.89, 4.29, 4.83, 0.0, -3.93, -4.4, -2.53, 1.9, 3.2, 2.48, 2.2, 1.84, 0.0, 0.0, 0.0, 0.0, 2.2, 1.19, 4.02, 2.84, 2.0, 0.0, -1.7, -2.4, -2.4, -2.23, -1.47, -1.55, -1.41, -3.13, -2.21, -0.0, 0.0, -2.53, -4.92, -0.0, 3.6, 5.31, 5.81, 4.15, 0.0, 0.0, -7.17, -7.17, -7.17, -7.17, -7.17, -7.51, -6.95, -6.95, -6.97, -6.97, -6.69, -6.98, -6.7, -6.98, -6.71, -6.97, -6.97, -6.96, -6.94, -6.5, -6.25, -5.8, -5.11, -4.1, -3.6, -2.84, -2.93, -2.83, -2.69, -2.3, -1.67, -1.78, -1.16, -1.1, -0.58, -0.59, -0.61, -0.61, -1.07, -1.07, -0.54, -0.54, 0.0, 0.55, 1.23, 2.23, 2.84, 3.72, 3.88, 4.19, 4.6, 7.45, 6.71, 6.71, 6.0, 5.21, 4.43, 4.11, 5.06, 3.47, 0.0, -2.8, 0.0, 4.02, 4.47, 4.4, 3.22, 1.05, 0.0, -1.84, -1.75, 0.0, 0.0, -1.8, -1.6, 0.0, 1.2, 1.13, -2.0, -3.48, -3.9, -3.27, -3.06, -1.6, 0.0, 1.14, 2.84, 4.02, 4.47, 3.58, 2.48, 0.96, 4.19, 4.98, 3.95, 0.81, -1.55, -1.55, -6.92, -6.92, -6.92, -7.17, -7.17, -6.92, -6.95, -6.95, -6.97, -6.97, -6.69, -6.98, -6.98, -6.98, -6.98, -6.97, -6.97, -6.96, -6.94, -6.94, -6.27, -6.04, -5.8, -5.11, -4.62, -3.99, -3.37, -2.77, -2.83, -2.19, -2.33, -2.33, -1.69, -1.71, -1.73, -1.12, -1.14, -1.16, -1.07, -1.07, -1.07, -0.54, 0.0, 0.0, 0.57, 1.27, 1.6, 2.23, 3.6, 3.39, 3.98, 4.02, 6.71, 7.15, 7.01, 6.0, 5.21, 4.84, 5.21, 5.06, 3.0, 1.84, 3.2, 4.92, 5.36, 4.98, 2.99, 1.98, -0.95, -2.67, -3.45, -2.7, -1.14, -4.02, -4.8, -4.24, -2.24, 0.0, 0.0, -2.84, -2.95, -1.84, -0.83, 0.0, 0.8, 0.94, 2.16, 3.72, 4.34, 3.9, 3.82, 2.4, 2.53, 2.4, 0.0, -2.51, -3.6, -3.6, -6.92, -6.92, -6.92, -6.92, -6.92, -6.92, -7.25, -6.95, -6.97, -6.97, -6.97, -6.98, -6.98, -6.98, -6.98, -6.71, -6.97, -6.96, -6.96, -6.94, -6.53, -6.27, -5.83, -5.14, -5.14, -4.65, -4.17, -3.53, -3.42, -2.8, -2.3, -2.83, -2.33, -2.21, -2.37, -2.23, -2.26, -2.29, -1.8, -1.67, -1.7, -1.7, -1.07, 0.0, 0.0, 0.57, 0.99, 1.88, 2.5, 2.91, 3.07, 3.13, 3.13, 4.02, 6.2, 5.94, 6.0, 6.07, 4.98, 4.11, 3.4, 3.0, 4.74, 5.73, 6.51, 4.29, 2.99, 0.95, 0.0, -1.84, -2.69, -2.69, -1.73, -3.22, -5.36, -5.73, -4.8, -1.58, 0.0, 0.0, 2.68, 3.13, 1.98, 0.81, 0.78, 0.0, 0.0, 1.08, 1.6, 2.4, 1.79, -0.0, -0.0, -2.24, -4.11, -4.87, -4.46, -4.46, -6.92, -6.92, -6.92, -6.92, -6.92, -6.92, -7.25, -6.95, -6.95, -6.97, -6.97, -6.98, -6.98, -6.7, -6.98, -6.71, -6.97, -6.7, -6.96, -6.7, -6.29, -6.29, -5.62, -5.83, -5.36, -4.48, -4.68, -4.72, -4.05, -4.08, -3.42, -3.3, -2.83, -2.86, -2.86, -2.89, -2.73, -2.75, -2.29, -2.32, -2.16, -1.7, -1.07, -0.54, -1.08, -1.13, -0.65, 1.2, 1.9, 2.4, 2.17, 2.24, 2.24, 3.13, 3.58, 6.17, 6.51, 6.51, 5.6, 4.43, 2.8, 2.8, 4.89, 6.45, 5.94, 6.0, 1.98, 0.0, 0.0, -0.89, -1.75, -2.69, -1.95, -1.84, -3.49, -5.36, -4.89, -3.22, -2.68, 0.0, 2.95, 2.84, 2.0, 2.0, 0.0, 0.0, 0.0, 0.0, -0.99, -1.58, -2.24, -3.9, -2.98, -5.31, -6.7, -7.02, -6.39, -6.39, -6.92, -6.92, -6.92, -6.92, -6.92, -6.92, -7.25, -6.95, -6.95, -6.95, -6.97, -6.69, -6.98, -6.98, -6.98, -6.98, -6.97, -6.97, -6.96, -6.56, -6.29, -6.29, -5.86, -5.86, -5.17, -5.2, -5.2, -4.54, -4.54, -4.08, -3.91, -4.12, -3.45, -3.49, -3.01, -2.86, -2.89, -2.89, -2.92, -2.96, -2.8, -2.16, -1.7, -0.95, 0.0, -0.99, -2.12, -0.89, 0.89, 1.49, 1.7, 1.79, 1.79, 2.17, 2.68, 3.58, 6.26, 6.58, 5.6, 5.58, 3.91, 3.79, 5.51, 6.36, 6.0, 3.91, 1.84, 0.0, -1.84, -1.75, -2.69, -2.54, -2.67, -1.84, -0.95, -1.19, -3.6, -4.89, -4.98, -4.02, -0.0, 2.21, 1.61, 0.95, 1.34, 0.0, -1.49, -2.95, -3.93, -4.34, -4.92, -5.81, -6.71, -6.98, -7.73, -8.05, -7.28, -7.28, -6.92, -6.92, -6.92, -6.92, -6.92, -6.92, -7.25, -6.95, -6.95, -6.95, -6.97, -6.69, -6.98, -6.98, -6.7, -6.98, -6.71, -6.97, -6.7, -6.31, -6.31, -6.56, -6.31, -5.89, -5.64, -5.64, -5.2, -4.54, -4.57, -4.08, -3.91, -3.91, -3.94, -3.45, -3.49, -3.52, -3.35, -3.37, -3.37, -3.4, -2.96, -2.8, -2.8, -1.16, 0.0, 0.0, -3.13, -0.0, 1.34, 1.79, 1.2, 1.34, 1.34, 1.79, 2.24, 2.68, 2.68, 3.39, 5.6, 5.6, 4.98, 4.98, 5.94, 5.6, 4.11, 3.91, 2.8, 0.0, -3.72, -4.68, -4.5, -4.26, -3.72, -2.99, -1.05, 0.0, 0.0, -4.02, -5.94, -6.26, -3.82, 0.57, 1.2, 0.43, -0.0, 0.0, -2.21, -3.84, -4.11, -4.22, -4.15, -5.29, -6.65, -7.85, -7.98, -8.0, -7.47, -7.47, -6.92, -6.92, -6.92, -6.92, -6.92, -6.92, -7.25, -6.95, -6.95, -6.95, -6.97, -6.97, -6.98, -6.98, -6.7, -6.98, -6.71, -6.97, -6.58, -6.31, -6.31, -6.31, -6.31, -6.31, -5.89, -5.89, -5.23, -4.57, -4.57, -4.57, -4.57, -4.57, -4.12, -3.94, -3.94, -3.49, -3.52, -3.35, -3.37, -3.37, -3.4, -3.42, -3.0, -2.16, -1.16, -0.89, 0.0, 0.6, 1.58, 1.9, 1.58, 1.6, 1.34, 1.79, 1.79, 2.24, 2.17, 2.49, 3.39, 5.51, 4.98, 5.37, 4.89, 4.11, 2.99, 2.16, 1.84, 0.0, -3.0, -6.79, -6.11, -4.42, -3.22, -3.48, -3.72, -1.05, 0.0, -1.05, -4.77, -6.17, -4.82, -2.21, -0.0, -0.0, -0.0, 0.0, -0.4, -2.3, -2.4, -1.55, -0.88, -1.66, -3.35, -4.46, -7.06, -6.28, -5.75, -5.75, -6.92, -6.92, -6.92, -6.92, -6.92, -6.92, -6.92, -6.95, -6.95, -6.95, -6.97, -6.97, -6.97, -6.98, -6.98, -6.7, -6.98, -6.71, -6.33, -6.33, -6.33, -6.33, -6.33, -6.07, -5.67, -5.67, -5.67, -5.26, -5.6, -4.6, -5.26, -5.26, -4.6, -4.6, -3.94, -3.97, -3.97, -3.52, -3.56, -3.37, -3.6, -3.4, -3.42, -3.0, -2.32, -1.12, 0.0, 1.14, 1.05, 1.07, 1.11, 1.2, 1.26, 1.2, 1.6, 1.7, 2.17, 2.4, 2.91, 2.68, 4.11, 3.91, 3.63, 2.76, 1.84, 0.96, 0.96, 1.4, 0.0, -1.63, -3.22, -1.84, -1.49, -1.98, -4.77, -4.0, -1.99, -1.84, -3.22, -4.02, -4.57, -3.58, -2.84, -0.57, -0.57, -0.63, -0.45, -0.57, -1.99, -1.55, -0.73, 0.0, -0.76, -0.76, -3.84, -1.9, -1.34, -1.34, -6.92, -6.92, -6.92, -6.92, -6.92, -6.92, -6.92, -6.95, -6.95, -6.95, -6.97, -6.97, -6.97, -6.69, -6.98, -6.7, -6.98, -6.98, -6.33, -6.33, -6.33, -6.33, -6.33, -6.33, -5.92, -5.92, -5.69, -5.69, -5.26, -6.56, -5.08, -5.08, -5.06, -4.63, -4.63, -4.4, -3.97, -4.0, -3.8, -4.03, -3.81, -3.6, -3.4, -3.42, -2.77, -2.29, -0.56, 0.0, 0.0, 0.0, 0.58, 1.08, 1.2, 0.99, 1.26, 1.58, 1.58, 2.4, 2.4, 2.5, 2.51, 3.63, 2.8, 1.99, 2.16, 1.05, 1.05, 0.96, 1.49, 1.49, 1.98, 0.89, 0.0, -1.84, -4.29, -5.36, -4.98, -3.72, -3.2, -3.48, -4.02, -4.22, -4.22, -3.22, -1.86, -1.49, -1.34, -1.26, -2.99, -2.99, -1.99, -0.88, 0.0, 0.0, 1.55, 1.8, 2.07, 2.07, -7.17, -7.17, -6.92, -6.92, -6.92, -6.92, -6.92, -6.95, -6.95, -6.95, -6.97, -6.97, -6.97, -6.97, -6.98, -6.98, -6.7, -6.7, -6.61, -6.33, -6.33, -6.33, -6.33, -6.33, -6.33, -5.92, -5.69, -5.92, -5.67, -5.02, -4.63, -4.69, -4.69, -4.83, -4.66, -4.63, -4.63, -3.97, -4.0, -4.03, -3.81, -3.81, -3.6, -3.4, -2.75, -2.26, -1.73, -1.09, -0.55, 0.0, 0.0, 0.53, 0.57, 0.53, 1.0, 1.0, 1.2, 1.2, 1.9, 1.88, 4.02, 4.43, 3.22, 1.41, 1.83, 2.2, 1.83, 0.96, 1.63, 1.73, 3.55, 2.99, 0.0, -2.83, -3.91, -5.36, -6.26, -6.16, -5.06, -4.01, -3.83, -4.47, -4.85, -4.66, -4.57, -2.49, -2.19, -2.63, -4.43, -4.43, -3.35, -1.83, -0.73, 0.0, 0.0, 1.7, 1.6, 1.6, -7.17, -7.17, -6.92, -6.92, -6.92, -6.92, -6.92, -6.95, -6.95, -6.95, -7.27, -6.97, -6.97, -6.97, -6.97, -6.98, -6.98, -6.7, -6.34, -6.34, -6.34, -6.34, -6.08, -6.08, -6.08, -5.69, -5.69, -5.69, -5.92, -5.67, -4.6, -3.97, -4.0, -4.45, -4.45, -4.44, -4.66, -4.42, -3.97, -4.0, -4.03, -3.81, -3.37, -3.4, -2.73, -2.23, -2.23, -1.71, -1.09, -0.59, 0.0, 0.0, 0.0, 0.59, 0.61, 0.53, 1.0, 1.0, 1.16, 1.13, 1.8, 3.0, 2.8, 1.52, 1.84, 1.7, 2.2, 1.99, 1.05, 2.16, 1.84, 1.49, 0.0, -1.84, -2.67, -4.29, -6.17, -6.94, -7.12, -6.21, -4.84, -4.22, -4.92, -5.29, -5.59, -3.2, -3.13, -6.45, -6.21, -5.15, -4.11, -2.76, -1.99, -0.81, -0.76, 0.0, 0.0, 0.0, -7.17, -7.17, -6.92, -6.92, -6.92, -6.92, -6.92, -6.95, -6.95, -6.95, -7.27, -6.97, -6.97, -6.97, -6.97, -6.97, -6.98, -6.7, -6.34, -6.34, -6.34, -6.34, -6.34, -6.34, -6.08, -5.69, -5.69, -5.69, -5.69, -5.69, -5.26, -4.6, -3.94, -4.0, -4.03, -4.45, -4.45, -4.44, -4.66, -4.0, -3.8, -4.03, -3.37, -3.37, -3.37, -2.89, -2.37, -1.71, -1.71, -1.09, -0.56, 0.0, 0.0, 0.0, 0.0, 0.0, 0.61, 0.51, 0.59, 0.57, 0.57, 1.76, 1.4, 1.84, 1.99, 1.7, 1.19, 1.05, 1.05, 1.05, 1.63, 0.89, 0.0, 0.0, -1.68, -2.83, -5.06, -6.57, -7.37, -6.98, -5.75, -4.84, -4.84, -5.29, -5.75, -6.65, -6.71, -6.7, -6.21, -5.82, -5.58, -4.43, -3.91, -3.47, -2.29, -2.47, 0.0, 0.0, -7.17, -7.17, -7.17, -6.92, -6.92, -6.92, -6.92, -6.95, -6.95, -6.95, -6.95, -6.97, -6.97, -6.97, -6.97, -6.97, -6.69, -6.98, -6.34, -6.34, -6.34, -6.34, -6.34, -6.34, -6.34, -5.95, -5.95, -5.69, -5.69, -5.69, -5.69, -5.26, -4.6, -4.4, -3.97, -4.03, -4.03, -4.45, -4.69, -4.44, -4.0, -4.03, -3.37, -4.4, -3.4, -3.6, -3.37, -2.89, -2.23, -1.73, -1.1, -0.57, 0.0, 0.0, 0.0, 0.0, 0.0, 0.0, 0.0, 0.0, 0.55, 0.55, 1.4, 1.03, 2.16, 1.7, 0.0, 0.0, 0.0, 1.19, 0.96, 0.96, 0.0, 0.0, -2.59, -4.4, -4.34, -5.53, -6.6, -6.51, -6.65, -5.75, -5.46, -5.21, -6.02, -6.71, -7.11, -6.94, -6.7, -6.7, -6.8, -6.44, -6.18, -5.82, -5.49, -4.74, -3.64, -1.52, -7.44, -7.44, -7.17, -6.92, -6.92, -6.92, -6.92, -7.25, -6.95, -6.95, -6.95, -6.95, -6.97, -6.97, -6.97, -6.97, -6.97, -6.69, -6.63, -6.34, -6.34, -6.34, -6.34, -6.34, -6.34, -5.95, -5.95, -5.95, -5.95, -5.7, -5.7, -5.7, -5.04, -4.6, -4.6, -3.97, -4.0, -4.03, -4.03, -4.03, -4.03, -4.03, -3.81, -3.65, -2.92, -4.05, -4.46, -4.05, -2.92, -2.26, -1.63, -1.12, -0.53, -0.61, 0.0, 0.0, 0.0, 0.0, 0.0, 0.0, 0.0, 0.55, 1.49, 0.96, 0.88, 0.0, 0.0, 0.0, 1.08, 0.98, 1.08, 0.0, 0.0, -0.89, -3.49, -5.06, -6.04, -6.04, -5.3, -5.15, -5.34, -5.75, -5.46, -4.74, -5.46, -6.0, -6.7, -6.7, -7.12, -7.35, -7.76, -7.42, -7.82, -7.42, -6.82, -6.07, -4.81, -3.64, -7.44, -7.44, -7.17, -6.92, -6.92, -6.92, -6.92, -7.25, -6.95, -6.95, -6.95, -6.95, -6.67, -6.97, -6.97, -6.97, -6.97, -6.69, -6.35, -6.63, -6.34, -6.34, -6.08, -6.08, -6.08, -5.7, -5.7, -5.7, -5.7, -5.7, -5.7, -5.7, -5.29, -5.04, -4.6, -4.6, -3.97, -4.0, -3.8, -4.03, -4.03, -4.03, -4.03, -3.37, -3.51, -3.37, -4.47, -4.47, -3.85, -2.77, -2.29, -1.65, -1.14, -0.54, -0.55, -0.57, -0.57, -0.55, 0.0, 0.0, 0.0, 0.0, 0.0, 0.0, 0.0, 0.0, 0.0, 1.08, 2.0, 0.98, 0.0, 0.0, 0.0, -1.4, -2.83, -5.53, -7.06, -6.95, -5.21, -4.83, -4.29, -4.11, -4.43, -4.74, -4.65, -4.65, -4.74, -5.49, -5.77, -6.44, -6.79, -7.44, -7.81, -7.44, -7.2, -6.21, -4.8, -4.81, -7.44, -7.44, -7.44, -6.92, -6.92, -6.92, -6.92, -6.92, -6.95, -6.95, -6.95, -6.95, -6.95, -6.67, -6.97, -6.97, -6.97, -6.69, -6.35, -6.35, -6.35, -6.08, -6.08, -6.08, -6.08, -5.7, -5.7, -5.7, -5.7, -5.7, -5.29, -5.29, -5.29, -5.29, -5.29, -4.6, -4.4, -3.97, -4.0, -3.8, -4.03, -4.03, -4.03, -4.45, -4.0, -4.25, -2.8, -2.86, -3.49, -2.84, -2.36, -1.67, -1.05, -1.16, -0.61, -0.55, -1.08, -0.55, -0.61, -0.61, 0.0, 0.0, 0.0, 0.0, 0.0, 0.0, 0.98, 2.2, 0.98, 0.0, 0.0, -0.96, -1.58, -1.4, -1.4, -6.01, -7.82, -8.43, -7.76, -6.32, -4.56, -4.16, -4.29, -4.29, -3.9, -3.79, -3.4, -3.4, -4.26, -4.83, -5.1, -5.89, -5.89, -6.45, -6.18, -5.37, -4.4, -4.4, -7.44, -7.44, -7.21, -6.92, -6.92, -6.92, -6.92, -6.92, -6.92, -6.92, -6.64, -6.95, -6.95, -6.67, -6.67, -6.97, -6.97, -6.97, -6.35, -6.35, -6.35, -6.35, -6.35, -6.35, -6.08, -6.08, -5.7, -5.7, -5.7, -5.7, -5.29, -5.29, -5.29, -5.06, -5.06, -5.06, -4.63, -4.63, -3.97, -4.0, -4.0, -3.8, -4.03, -4.44, -4.42, -3.49, -1.71, -1.12, -1.7, -1.73, -1.73, -1.73, -1.55, -1.16, -1.07, -1.19, -1.19, -1.07, -1.07, -0.54, -0.54, -0.59, 0.0, 0.0, 1.4, 1.52, 0.0, 0.0, 0.0, 0.0, 0.0, -1.03, -1.58, -0.94, -1.47, -1.67, -5.06, -7.2, -8.17, -7.82, -6.7, -6.06, -5.37, -5.06, -4.36, -3.77, -3.4, -3.27, -3.45, -3.45, -4.12, -4.5, -4.5, -4.68, -3.79, -2.84, -2.84, -2.84, -7.44, -7.44, -7.21, -7.21, -6.92, -6.92, -6.92, -6.92, -6.92, -6.92, -6.64, -6.64, -6.95, -6.95, -6.67, -6.67, -6.97, -6.97, -6.35, -6.35, -6.35, -6.35, -6.35, -6.35, -6.35, -6.35, -5.98, -5.98, -5.7, -5.7, -5.29, -5.29, -5.06, -5.06, -5.06, -5.06, -5.06, -4.63, -4.63, -3.97, -4.0, -4.0, -4.0, -4.0, -4.44, -3.32, -2.3, -1.12, -1.07, -1.1, -1.05, -1.19, -1.19, -1.19, -1.07, -1.07, -1.7, -1.7, -1.7, -1.16, -1.16, -1.16, -0.53, 0.0, 1.49, 1.4, 1.52, 0.0, 0.0, 0.0, -0.96, -0.95, -1.73, -1.75, -0.85, 0.0, 0.0, -1.84, -4.19, -5.95, -6.18, -5.43, -5.06, -4.74, -4.74, -3.9, -3.4, -2.69, -2.57, -2.57, -2.44, -3.45, -2.54, -2.8, -3.22, -2.95, -2.95, -2.95, -7.21, -7.21, -7.21, -7.21, -6.92, -6.92, -6.59, -6.59, -6.92, -6.92, -6.92, -6.34, -6.34, -6.65, -6.35, -6.35, -6.67, -6.64, -6.64, -6.35, -6.35, -6.35, -6.35, -6.35, -6.35, -6.35, -5.98, -5.72, -5.72, -5.72, -5.06, -5.06, -5.06, -5.06, -5.06, -5.06, -5.06, -4.63, -4.63, -4.42, -3.97, -4.0, -4.0, -4.0, -4.03, -4.03, -2.86, -2.3, -1.75, -1.12, -0.58, -0.57, -0.59, -1.07, -1.07, -1.7, -1.7, -1.7, -1.7, -1.7, -1.16, -1.16, -1.14, 0.0, 1.4, 1.25, 1.4, 0.0, -1.08, -1.05, -1.63, -1.98, -1.73, -0.89, 0.0, 0.0, 0.85, 0.82, 0.0, 0.0, -0.89, -1.49, -1.49, -2.4, -2.4, -3.2, -3.09, -2.44, -1.68, -1.68, -1.22, -1.58, -1.75, -1.84, -2.8, -3.91, -3.91, -3.91, -6.87, -6.87, -6.87, -6.87, -6.87, -6.87, -6.59, -6.59, -6.59, -6.32, -6.64, -6.34, -6.34, -6.34, -6.35, -6.35, -6.35, -6.35, -6.64, -6.35, -6.35, -6.35, -6.35, -6.35, -6.35, -6.35, -5.72, -5.72, -5.72, -5.72, -5.72, -5.06, -5.06, -5.06, -5.06, -5.32, -5.08, -4.66, -4.66, -4.42, -4.42, -3.97, -3.97, -4.0, -4.03, -4.03, -3.56, -2.86, -2.83, -2.3, -1.67, -1.16, -0.61, -0.58, -1.16, -1.7, -1.7, -1.7, -1.7, -1.7, -1.7, -1.7, -1.05, -1.14, 0.0, 1.2, 0.0, 0.0, -1.03, -1.84, -1.98, -0.95, -0.89, 0.0, 0.0, 0.89, 0.85, 0.85, 0.82, 1.76, 1.7, 0.83, 0.0, 0.0, -0.72, -1.47, -2.23, -2.35, -2.47, -2.49, -1.33, -2.69, -2.69, -2.83, -3.77, -4.42, -4.42, -4.42, -6.87, -6.87, -6.87, -6.87, -6.87, -6.87, -6.62, -6.32, -6.32, -6.32, -6.32, -6.64, -6.34, -6.34, -6.65, -6.35, -6.35, -6.35, -6.35, -6.64, -6.35, -6.35, -6.35, -6.35, -6.35, -6.08, -5.72, -5.72, -5.72, -5.72, -5.72, -5.32, -5.06, -5.06, -5.32, -5.08, -4.66, -4.66, -4.66, -4.66, -4.42, -4.42, -3.97, -4.0, -3.8, -3.56, -3.37, -3.56, -2.86, -2.86, -2.33, -1.69, -1.16, -1.1, -1.16, -1.7, -1.7, -1.7, -1.7, -1.7, -1.7, -1.7, -1.16, -1.16, 0.0, 0.0, 0.0, 0.0, -1.4, -1.03, -0.95, -0.95, 0.0, 0.0, 0.0, 0.0, 0.0, 0.82, 0.85, 1.69, 0.86, 0.8, 0.0, 0.0, -0.76, -1.56, -2.39, -2.97, -3.36, -2.59, -2.59, -3.49, -3.63, -3.45, -4.26, -4.26, -4.26, -4.26, -6.87, -6.87, -6.87, -6.87, -6.62, -6.62, -6.62, -6.32, -6.32, -6.32, -6.32, -6.32, -6.34, -6.34, -6.34, -6.35, -6.35, -6.35, -6.35, -6.35, -6.08, -6.35, -6.35, -6.35, -6.08, -5.72, -5.72, -5.72, -5.72, -5.72, -5.72, -5.32, -5.32, -5.32, -5.08, -5.08, -4.66, -4.66, -4.66, -4.66, -4.66, -4.42, -4.42, -4.0, -4.0, -4.03, -3.56, -3.56, -3.35, -2.86, -2.71, -2.37, -2.23, -1.61, -1.14, -1.16, -1.7, -1.7, -1.7, -1.7, -1.7, -1.7, -1.7, -1.07, -0.54, 0.0, 0.0, 0.0, 0.0, 0.0, 0.0, 0.0, 0.0, 0.0, 0.0, 0.0, 0.0, 0.0, 0.85, 0.82, 0.0, 0.0, 0.0, 0.0, -1.52, -2.89, -3.11, -3.61, -4.71, -4.71, -4.07, -3.49, -3.63, -4.34, -4.5, -5.1, -5.1, -5.1, -6.87, -6.87, -6.87, -6.87, -6.28, -6.28, -6.28, -6.62, -6.32, -6.32, -6.32, -6.32, -6.34, -6.34, -6.34, -6.65, -6.35, -6.35, -6.35, -6.35, -6.35, -6.08, -6.08, -6.08, -6.08, -5.72, -6.0, -6.0, -5.72, -5.72, -5.08, -5.08, -5.08, -5.08, -5.08, -4.66, -4.66, -4.66, -4.66, -4.66, -4.66, -4.66, -4.66, -4.0, -4.0, -4.03, -4.03, -3.56, -3.35, -3.35, -2.89, -2.89, -2.89, -2.23, -1.76, -1.67, -1.84, -1.7, -1.7, -1.7, -1.7, -1.7, -1.7, -1.73, -1.07, -0.89, 0.0, 0.0, 0.0, -0.95, -1.96, -1.73, 0.0, 0.0, 0.0, 0.0, 0.0, 0.0, 0.89, 0.0, 0.0, 0.0, 0.0, 0.0, -2.15, -3.78, -5.38, -6.14, -6.14, -6.14, -5.38, -5.46, -4.56, -4.34, -4.96, -5.36, -5.36, -5.36, -6.87, -6.87, -6.87, -6.28, -6.28, -6.28, -6.28, -6.28, -6.32, -6.32, -6.32, -6.32, -6.64, -6.34, -6.34, -6.34, -6.35, -6.35, -6.35, -6.35, -6.35, -6.08, -6.08, -6.08, -5.72, -6.0, -6.0, -5.72, -5.72, -5.72, -5.34, -5.08, -5.08, -5.08, -4.66, -4.66, -4.66, -4.66, -4.66, -4.66, -4.66, -4.66, -4.66, -4.44, -4.0, -4.03, -4.03, -4.03, -3.35, -3.35, -3.37, -2.89, -2.73, -2.4, -2.26, -1.76, -1.8, -1.67, -1.84, -1.7, -2.18, -1.7, -1.7, -1.73, -1.73, -0.89, 0.0, 0.89, 0.0, -0.89, -1.96, -2.82, -2.67, -0.89, 0.0, 0.0, 0.0, 0.0, 0.0, 0.0, 0.0, 0.0, 0.0, -0.83, -1.7, -5.49, -7.02, -7.02, -6.95, -6.95, -6.64, -6.24, -5.49, -5.36, -4.5, -4.26, -4.26, -4.26, -6.87, -6.87, -6.87, -6.28, -6.28, -6.28, -6.28, -6.28, -6.32, -6.32, -6.32, -6.32, -6.64, -6.34, -6.34, -6.34, -6.65, -6.35, -6.35, -6.35, -6.35, -6.35, -6.08, -5.72, -6.0, -5.72, -5.72, -5.72, -5.72, -5.72, -5.34, -5.34, -5.08, -5.08, -4.66, -4.66, -4.66, -4.66, -4.66, -4.66, -4.66, -4.66, -4.44, -4.44, -4.69, -4.03, -4.03, -4.03, -3.8, -3.35, -3.37, -3.37, -3.4, -2.92, -2.26, -2.26, -2.29, -2.32, -2.16, -2.16, -2.36, -2.36, -1.7, -1.7, -1.73, -1.08, 0.0, 0.0, 0.0, 0.0, -0.95, -1.96, -2.82, -3.77, -0.94, 0.0, 0.0, 0.0, 0.0, 0.0, 0.0, 0.0, -0.82, -0.86, -2.97, -4.46, -6.06, -7.67, -7.32, -7.02, -6.68, -7.06, -6.73, -6.01, -4.87, -3.97, -3.97, -3.97, -6.87, -6.87, -6.87, -6.28, -6.28, -6.28, -6.28, -6.62, -6.32, -6.32, -6.32, -6.32, -6.92, -6.64, -6.34, -6.34, -6.34, -6.65, -6.35, -6.35, -6.35, -6.35, -6.0, -6.0, -5.72, -5.72, -5.72, -5.72, -5.72, -5.34, -5.34, -5.34, -5.34, -5.08, -5.08, -4.66, -4.66, -4.66, -4.66, -4.66, -4.66, -4.66, -4.44, -4.44, -4.69, -4.45, -4.03, -4.03, -4.03, -3.56, -3.56, -3.37, -3.4, -2.92, -2.75, -2.75, -2.29, -2.29, -2.32, -2.32, -2.16, -2.36, -2.36, -2.18, -1.73, -1.57, -1.84, 0.0, 0.0, 0.94, 0.0, 0.0, -0.95, -1.84, -2.99, -1.84, -0.94, 0.0, 0.0, 0.0, 0.0, -0.85, -0.82, -1.71, -2.21, -3.15, -4.95, -6.44, -7.03, -6.44, -6.08, -6.44, -6.21, -5.24, -4.11, -2.16, -2.16, -2.16, -6.87, -6.87, -6.87, -6.52, -6.28, -6.28, -6.28, -6.62, -6.32, -6.32, -6.59, -6.59, -6.92, -6.92, -6.64, -6.34, -6.34, -6.34, -6.65, -6.35, -6.35, -6.35, -6.0, -5.72, -5.72, -5.72, -5.72, -5.72, -5.72, -5.72, -5.34, -5.34, -5.34, -5.08, -5.08, -5.08, -5.08, -5.08, -5.08, -5.08, -4.66, -4.66, -4.44, -4.69, -4.69, -4.45, -4.45, -4.03, -4.03, -4.03, -3.56, -3.37, -3.4, -3.4, -2.75, -2.75, -2.96, -2.77, -2.77, -2.77, -2.8, -2.8, -2.16, -2.36, -1.73, -1.73, -1.07, -0.54, 0.0, 0.89, 0.0, 0.0, 0.0, 0.0, 0.0, -1.84, -0.89, -0.89, -0.85, -0.89, -1.68, -0.89, -1.6, -1.71, -3.02, -3.7, -4.83, -5.46, -6.28, -6.4, -5.82, -4.84, -4.29, -3.48, -2.48, -1.8, -1.8, -1.8, -6.87, -6.87, -6.87, -6.87, -6.28, -6.28, -6.62, -6.62, -6.32, -6.32, -6.59, -6.59, -6.92, -6.92, -6.92, -6.34, -6.34, -6.34, -6.34, -6.34, -6.06, -6.06, -5.72, -5.72, -5.72, -5.72, -5.72, -5.72, -5.72, -5.72, -5.72, -5.34, -5.34, -5.34, -5.08, -5.08, -5.08, -5.08, -5.08, -5.08, -5.08, -4.66, -4.44, -4.69, -4.69, -4.45, -4.45, -4.45, -4.03, -4.03, -3.81, -3.37, -3.4, -3.4, -3.42, -2.96, -2.96, -2.96, -2.77, -2.77, -2.77, -2.8, -2.8, -2.6, -2.18, -1.55, -1.55, -1.16, 0.0, 0.0, 0.0, 0.0, 0.0, 0.94, 0.94, 0.0, -0.89, -0.89, -0.85, -1.75, -1.75, -1.68, -0.83, -0.8, -2.6, -4.56, -5.89, -6.55, -6.4, -6.4, -5.82, -3.93, -2.48, -2.53, -3.2, -3.13, -3.13, -3.13, -6.87, -6.87, -6.87, -6.87, -6.62, -6.62, -6.62, -6.62, -6.32, -6.32, -6.59, -6.59, -6.59, -6.92, -6.92, -6.64, -6.34, -6.34, -6.34, -6.34, -6.34, -6.06, -5.72, -5.72, -5.72, -5.72, -5.72, -5.72, -5.72, -5.72, -5.72, -5.72, -5.34, -5.34, -5.08, -5.08, -5.08, -5.08, -5.08, -5.34, -5.34, -5.09, -4.69, -4.69, -4.69, -4.45, -4.45, -4.71, -4.05, -3.81, -3.81, -4.05, -3.4, -3.64, -3.42, -3.42, -3.42, -3.42, -2.96, -2.96, -2.77, -3.0, -2.8, -2.8, -2.82, -2.18, -1.7, -1.55, -1.14, -0.85, 0.0, 0.0, 0.0, 0.0, 0.0, 0.0, 0.0, 0.0, -0.85, -0.85, -0.89, -0.89, 0.0, 0.0, -0.86, -3.63, -5.69, -6.82, -6.94, -6.94, -5.43, -3.58, -2.98, -3.82, -4.02, -4.47, -4.47, -4.47, -6.87, -6.87, -6.87, -6.87, -6.87, -6.62, -6.62, -6.62, -6.32, -6.32, -6.59, -6.59, -6.59, -6.59, -6.92, -6.64, -6.64, -6.34, -6.34, -6.34, -6.34, -6.34, -5.72, -5.72, -5.72, -5.72, -5.72, -5.72, -5.72, -5.72, -5.72, -5.72, -5.72, -5.72, -5.34, -5.08, -5.08, -5.08, -5.34, -5.34, -5.09, -5.09, -5.09, -4.69, -4.45, -4.45, -4.71, -4.71, -4.05, -4.05, -4.05, -4.05, -3.4, -3.64, -3.42, -3.42, -3.42, -3.42, -3.42, -3.42, -3.42, -3.45, -3.45, -2.8, -2.8, -2.16, -2.36, -1.7, -1.67, -1.75, -0.94, 0.0, 0.0, 0.0, 0.0, -0.84, -0.89, -0.89, -0.85, -0.85, -0.89, 0.0, 0.0, 0.0, 0.0, -1.75, -4.11, -5.2, -5.75, -5.75, -4.98, -4.0, -4.34, -5.26, -5.36, -6.26, -6.26, -6.26, -6.87, -6.87, -6.87, -6.87, -6.87, -6.87, -6.62, -6.62, -6.62, -6.32, -6.32, -6.32, -6.59, -6.59, -6.32, -6.32, -6.64, -6.34, -6.34, -6.34, -6.34, -6.34, -6.06, -5.72, -5.72, -5.72, -5.72, -5.72, -5.72, -5.72, -5.72, -5.72, -5.72, -5.72, -5.72, -5.72, -5.34, -5.34, -5.34, -5.09, -5.09, -5.09, -5.09, -4.45, -4.45, -4.45, -4.71, -4.46, -4.05, -4.05, -4.05, -4.05, -3.83, -4.08, -3.42, -3.42, -3.42, -3.42, -3.42, -3.42, -3.42, -3.45, -3.45, -3.22, -3.04, -3.04, -2.16, -2.16, -2.32, -2.54, -0.89, 0.0, 0.0, 0.0, 0.0, 0.0, -0.89, -0.89, -1.84, -0.85, 0.0, 0.0, 0.0, 0.0, 0.0, -0.85, -3.22, -3.9, -4.47, -4.38, -4.38, -4.82, -5.09, -6.17, -6.71, -6.71, -6.71, -6.71, -6.87, -6.87, -6.87, -6.87, -6.87, -6.87, -6.62, -6.62, -6.62, -6.62, -6.62, -6.62, -6.62, -6.32, -6.32, -6.32, -6.32, -6.64, -6.34, -6.34, -6.34, -6.34, -6.34, -5.72, -5.72, -5.72, -5.72, -5.72, -5.72, -5.72, -5.72, -5.72, -5.72, -5.72, -5.72, -5.72, -5.72, -5.34, -5.09, -5.09, -5.09, -5.09, -4.45, -4.71, -4.71, -4.71, -4.71, -4.46, -4.05, -4.05, -4.05, -4.05, -3.83, -4.08, -4.08, -4.08, -3.84, -3.84, -3.84, -3.84, -3.42, -3.45, -3.45, -3.22, -3.47, -3.04, -3.04, -2.32, -2.8, -2.29, -1.18, 0.0, 0.89, 0.84, 0.0, 0.0, 0.0, 0.0, 0.0, 0.0, 0.0, 0.0, -0.89, -0.83, -0.83, -1.71, -1.75, -2.68, -3.58, -4.47, -5.29, -5.59, -6.28, -6.99, -6.88, -5.4, -5.4, -5.4, -6.87, -6.87, -6.87, -6.87, -6.87, -6.87, -6.62, -6.62, -6.62, -6.62, -6.62, -6.62, -6.62, -6.62, -6.32, -6.32, -6.32, -6.32, -6.32, -6.34, -6.34, -6.34, -6.34, -6.01, -5.72, -5.72, -5.72, -5.72, -5.72, -5.72, -5.72, -5.72, -5.72, -5.72, -5.72, -5.72, -5.72, -5.09, -5.09, -5.09, -5.1, -5.1, -4.71, -4.71, -4.71, -4.71, -4.46, -4.46, -4.46, -4.46, -4.05, -4.05, -4.05, -4.08, -4.08, -4.08, -4.08, -3.84, -3.84, -4.1, -4.1, -3.85, -3.45, -3.47, -3.47, -3.22, -2.82, -2.8, -2.8, -2.77, -1.73, -0.89, 0.89, 1.2, 0.89, 0.0, 0.0, 0.0, 0.0, -0.89, -0.85, -0.82, -0.89, -1.64, -0.86, -0.81, -1.64, -2.57, -3.35, -4.85, -6.21, -6.98, -7.35, -6.64, -4.74, -1.6, -1.6, -1.6, -6.87, -6.87, -6.87, -6.87, -6.87, -6.87, -6.62, -6.62, -6.62, -6.62, -6.62, -6.62, -6.62, -6.62, -6.62, -6.32, -6.32, -6.32, -6.32, -6.32, -6.34, -6.34, -6.34, -6.34, -5.72, -5.72, -5.72, -5.72, -5.72, -5.72, -6.01, -6.01, -6.01, -5.72, -5.72, -5.45, -5.72, -5.36, -5.36, -5.1, -5.1, -4.71, -4.71, -4.71, -4.71, -4.71, -4.46, -4.46, -4.46, -4.46, -4.46, -4.46, -4.46, -4.73, -4.47, -4.47, -4.47, -4.75, -4.47, -4.1, -4.1, -3.85, -3.45, -3.47, -3.47, -3.22, -3.22, -3.04, -2.8, -2.77, -2.29, -1.1, 0.0, 0.0, 0.0, 0.0, 0.0, -0.94, -0.94, -0.89, -1.68, -1.76, -1.76, -1.7, -1.65, -0.81, -1.65, -2.44, -3.36, -4.42, -5.95, -7.2, -6.44, -5.3, -2.4, 0.0, 0.0, 0.0, -6.87, -6.87, -6.87, -6.87, -6.87, -6.87, -6.62, -6.62, -6.62, -6.62, -6.62, -6.62, -6.62, -6.62, -6.62, -6.32, -6.32, -6.32, -6.32, -6.32, -6.34, -6.34, -6.34, -6.34, -5.72, -5.72, -5.72, -5.72, -5.72, -5.72, -6.01, -6.01, -6.01, -5.72, -5.72, -5.45, -5.72, -5.36, -5.36, -5.1, -5.1, -4.71, -4.71, -4.71, -4.71, -4.71, -4.46, -4.46, -4.46, -4.46, -4.46, -4.46, -4.46, -4.73, -4.47, -4.47, -4.47, -4.75, -4.47, -4.1, -4.1, -3.85, -3.45, -3.47, -3.47, -3.22, -3.22, -3.04, -2.8, -2.77, -2.29, -1.1, 0.0, 0.0, 0.0, 0.0, 0.0, -0.94, -0.94, -0.89, -1.68, -1.76, -1.76, -1.7, -1.71, -0.81, -0.84, -1.65, -1.64, -2.6, -3.36, -3.63, -3.49, -1.68, 0.0, 1.69, 1.69, 1.69]}]